GW3906 Weather Reports


time (UTC)temp
C
wind
direction
speed
KPH
gust
KPH
rain 1hr
cm
rain 24hr
cm
rain mn
cm
humidity
%
barometer
mb
20260506205306 6 360 6.4 17.7 0.00 0.00 0.00 48 1015.9
20260506205203 6 360 6.4 17.7 0.00 0.00 0.00 49 1015.9
20260506205103 6 360 6.4 17.7 0.00 0.00 0.00 49 1015.8
20260506205003 6 360 6.4 17.7 0.00 0.00 0.00 49 1015.8
20260506204903 6 360 6.4 17.7 0.00 0.00 0.00 48 1015.9
20260506204803 6 360 6.4 17.7 0.00 0.00 0.00 48 1015.9
20260506204703 6 360 6.4 17.7 0.00 0.00 0.00 48 1015.9
20260506204603 6 360 4.8 16.1 0.00 0.00 0.00 49 1015.9
20260506204503 6 360 6.4 16.1 0.00 0.00 0.00 48 1015.9
20260506204404 6 360 6.4 16.1 0.00 0.00 0.00 47 1015.9
20260506204303 6 360 6.4 16.1 0.00 0.00 0.00 46 1015.9
20260506204204 6 360 6.4 16.1 0.00 0.00 0.00 46 1015.9
20260506204103 6 360 6.4 16.1 0.00 0.00 0.00 48 1016.0
20260506204003 6 360 6.4 16.1 0.00 0.00 0.00 47 1015.9
20260506203904 6 360 6.4 16.1 0.00 0.00 0.00 49 1015.9
20260506203803 6 360 6.4 16.1 0.00 0.00 0.00 47 1015.9
20260506203703 6 360 4.8 16.1 0.00 0.00 0.00 47 1015.8
20260506203603 6 360 4.8 8.0 0.00 0.00 0.00 48 1015.9
20260506203504 6 360 4.8 8.0 0.00 0.00 0.00 48 1015.8
20260506203403 6 360 6.4 9.7 0.00 0.00 0.00 48 1015.9
20260506203303 6 360 8.0 19.3 0.00 0.00 0.00 48 1015.9
20260506203218 6 360 8.0 19.3 0.00 0.00 0.00 48 1015.9
20260506203103 6 360 8.0 19.3 0.00 0.00 0.00 48 1015.9
20260506203003 6 360 9.7 19.3 0.00 0.00 0.00 49 1015.9
20260506202904 6 360 9.7 19.3 0.00 0.00 0.00 48 1015.9
20260506202803 6 360 9.7 19.3 0.00 0.00 0.00 47 1015.8
20260506202703 6 360 8.0 19.3 0.00 0.00 0.00 47 1015.8
20260506202604 6 360 8.0 19.3 0.00 0.00 0.00 47 1015.9
20260506202503 6 360 8.0 19.3 0.00 0.00 0.00 47 1015.8
20260506202404 6 360 8.0 19.3 0.00 0.00 0.00 47 1015.8
20260506202306 6 360 6.4 19.3 0.00 0.00 0.00 47 1015.8
20260506202203 6 360 6.4 14.5 0.00 0.00 0.00 47 1015.9
20260506202103 6 360 6.4 9.7 0.00 0.00 0.00 48 1015.9
20260506202003 6 360 4.8 9.7 0.00 0.00 0.00 48 1015.9
20260506201905 6 360 8.0 20.9 0.00 0.00 0.00 47 1015.8
20260506201804 6 360 9.7 20.9 0.00 0.00 0.00 47 1015.9
20260506201703 6 360 9.7 20.9 0.00 0.00 0.00 49 1015.9
20260506201603 6 360 9.7 20.9 0.00 0.00 0.00 48 1015.9
20260506201517 6 360 11.3 20.9 0.00 0.00 0.00 48 1015.9
20260506201404 6 360 11.3 20.9 0.00 0.00 0.00 48 1015.9
20260506201304 6 360 11.3 20.9 0.00 0.00 0.00 48 1015.9
20260506201217 6 360 11.3 20.9 0.00 0.00 0.00 48 1015.9
20260506201103 6 360 9.7 20.9 0.00 0.00 0.00 49 1015.9
20260506201005 6 360 9.7 20.9 0.00 0.00 0.00 47 1015.9
20260506200903 6 360 9.7 20.9 0.00 0.00 0.00 48 1015.9
20260506200804 6 360 6.4 19.3 0.00 0.00 0.00 48 1015.9
20260506200717 6 360 6.4 16.1 0.00 0.00 0.00 48 1015.9
20260506200603 6 360 6.4 16.1 0.00 0.00 0.00 48 1015.9
20260506200504 6 360 4.8 16.1 0.00 0.00 0.00 48 1015.9
20260506200403 6 360 6.4 16.1 0.00 0.00 0.00 49 1015.9
20260506200303 6 360 6.4 16.1 0.00 0.00 0.00 48 1015.9
20260506200217 6 360 6.4 16.1 0.00 0.00 0.00 48 1015.9
20260506200103 6 360 6.4 16.1 0.00 0.00 0.00 48 1015.9
20260506200004 6 360 6.4 16.1 0.00 0.00 0.00 48 1016.0
20260506195903 6 360 6.4 16.1 0.00 0.00 0.00 49 1016.0
20260506195803 6 360 6.4 16.1 0.00 0.00 0.00 49 1016.1
20260506195704 6 360 8.0 16.1 0.00 0.00 0.00 49 1016.1
20260506195604 6 360 6.4 16.1 0.00 0.00 0.00 49 1016.0
20260506195504 6 360 8.0 16.1 0.00 0.00 0.00 47 1016.0
20260506195404 6 360 6.4 16.1 0.00 0.00 0.00 49 1016.0
20260506195306 5 360 4.8 11.3 0.00 0.00 0.00 49 1016.1
20260506195218 5 360 4.8 9.7 0.00 0.00 0.00 49 1016.0
20260506195104 5 360 6.4 20.9 0.00 0.00 0.00 49 1016.1
20260506195003 5 360 8.0 20.9 0.00 0.00 0.00 49 1016.1
20260506194903 5 360 8.0 20.9 0.00 0.00 0.00 49 1016.1
20260506194803 5 360 8.0 20.9 0.00 0.00 0.00 49 1016.1
20260506194704 5 360 8.0 20.9 0.00 0.00 0.00 48 1016.1
20260506194617 5 360 8.0 20.9 0.00 0.00 0.00 48 1016.1
20260506194504 5 360 8.0 20.9 0.00 0.00 0.00 48 1016.2
20260506194404 5 360 8.0 20.9 0.00 0.00 0.00 49 1016.1
20260506194304 5 360 8.0 20.9 0.00 0.00 0.00 49 1016.2
20260506194203 5 360 8.0 20.9 0.00 0.00 0.00 49 1016.1
20260506194103 5 360 6.4 20.9 0.00 0.00 0.00 50 1016.1
20260506194017 5 360 6.4 20.9 0.00 0.00 0.00 50 1016.1
20260506193904 5 360 4.8 8.0 0.00 0.00 0.00 50 1016.2
20260506193803 5 360 4.8 8.0 0.00 0.00 0.00 50 1016.1
20260506193703 5 360 4.8 16.1 0.00 0.00 0.00 49 1016.2
20260506193604 5 360 4.8 16.1 0.00 0.00 0.00 48 1016.1
20260506193504 6 360 6.4 16.1 0.00 0.00 0.00 48 1016.1
20260506193403 6 360 4.8 16.1 0.00 0.00 0.00 48 1016.2
20260506193304 6 360 6.4 16.1 0.00 0.00 0.00 49 1016.1
20260506193203 6 360 6.4 16.1 0.00 0.00 0.00 49 1016.1
20260506193104 6 360 6.4 16.1 0.00 0.00 0.00 49 1016.1
20260506193017 6 360 6.4 16.1 0.00 0.00 0.00 49 1016.3
20260506192904 6 360 6.4 16.1 0.00 0.00 0.00 49 1016.2
20260506192803 6 360 6.4 16.1 0.00 0.00 0.00 49 1016.1
20260506192703 6 360 6.4 16.1 0.00 0.00 0.00 49 1016.1
20260506192603 6 360 6.4 14.5 0.00 0.00 0.00 50 1016.1
20260506192504 6 360 6.4 14.5 0.00 0.00 0.00 50 1016.2
20260506192403 6 360 6.4 14.5 0.00 0.00 0.00 50 1016.1
20260506192305 5 360 6.4 14.5 0.00 0.00 0.00 50 1016.2
20260506192203 5 360 6.4 14.5 0.00 0.00 0.00 50 1016.2
20260506192104 5 360 4.8 14.5 0.00 0.00 0.00 49 1016.1
20260506192003 5 360 4.8 11.3 0.00 0.00 0.00 50 1016.1
20260506191903 5 360 4.8 11.3 0.00 0.00 0.00 50 1016.1
20260506191804 5 360 4.8 17.7 0.00 0.00 0.00 50 1016.1
20260506191703 5 360 6.4 17.7 0.00 0.00 0.00 49 1016.2
20260506191603 5 360 6.4 17.7 0.00 0.00 0.00 49 1016.1
20260506191503 5 360 6.4 17.7 0.00 0.00 0.00 50 1016.2
20260506191403 5 360 6.4 17.7 0.00 0.00 0.00 50 1016.2
20260506191317 5 360 8.0 17.7 0.00 0.00 0.00 50 1016.1
20260506191204 5 360 8.0 17.7 0.00 0.00 0.00 50 1016.1
20260506191103 5 360 8.0 17.7 0.00 0.00 0.00 50 1016.2
20260506191003 5 360 9.7 17.7 0.00 0.00 0.00 50 1016.1
20260506190903 5 360 9.7 17.7 0.00 0.00 0.00 50 1016.1
20260506190803 5 360 8.0 17.7 0.00 0.00 0.00 49 1016.1
20260506190703 5 360 8.0 16.1 0.00 0.00 0.00 49 1016.2
20260506190603 5 360 8.0 16.1 0.00 0.00 0.00 49 1016.2
20260506190504 5 360 8.0 16.1 0.00 0.00 0.00 50 1016.2
20260506190403 5 360 8.0 16.1 0.00 0.00 0.00 50 1016.2
20260506190317 5 360 6.4 16.1 0.00 0.00 0.00 48 1016.1
20260506190203 5 360 8.0 19.3 0.00 0.00 0.00 51 1016.2
20260506190118 5 360 6.4 19.3 0.00 0.00 0.00 51 1016.1
20260506190004 5 360 6.4 19.3 0.00 0.00 0.00 50 1016.1
20260506185904 5 360 6.4 19.3 0.00 0.00 0.00 51 1016.1
20260506185803 5 360 6.4 19.3 0.00 0.00 0.00 51 1016.1
20260506185703 5 360 8.0 19.3 0.00 0.00 0.00 50 1016.1
20260506185617 5 360 8.0 19.3 0.00 0.00 0.00 51 1016.1
20260506185504 5 360 8.0 19.3 0.00 0.00 0.00 51 1016.2
20260506185404 5 360 8.0 19.3 0.00 0.00 0.00 50 1016.2
20260506185306 5 360 8.0 19.3 0.00 0.00 0.00 50 1016.2
20260506185204 5 360 8.0 19.3 0.00 0.00 0.00 49 1016.2
20260506185104 5 360 8.0 16.1 0.00 0.00 0.00 50 1016.1
20260506185003 5 360 6.4 16.1 0.00 0.00 0.00 50 1016.1
20260506184904 5 360 6.4 16.1 0.00 0.00 0.00 50 1016.2
20260506184803 5 360 6.4 16.1 0.00 0.00 0.00 49 1016.1
20260506184704 5 360 4.8 16.1 0.00 0.00 0.00 50 1016.2
20260506184603 5 360 4.8 12.9 0.00 0.00 0.00 50 1016.2
20260506184503 5 360 4.8 12.9 0.00 0.00 0.00 50 1016.2
20260506184417 5 360 4.8 12.9 0.00 0.00 0.00 50 1016.2
20260506184303 5 360 4.8 16.1 0.00 0.00 0.00 51 1016.3
20260506184204 5 360 4.8 16.1 0.00 0.00 0.00 51 1016.2
20260506184104 5 360 4.8 16.1 0.00 0.00 0.00 52 1016.2
20260506184003 5 360 6.4 17.7 0.00 0.00 0.00 51 1016.2
20260506183904 5 360 8.0 17.7 0.00 0.00 0.00 51 1016.2
20260506183817 5 360 8.0 17.7 0.00 0.00 0.00 51 1016.2
20260506183705 5 360 8.0 17.7 0.00 0.00 0.00 51 1016.2
20260506183604 5 360 8.0 17.7 0.00 0.00 0.00 50 1016.3
20260506183517 5 360 8.0 17.7 0.00 0.00 0.00 50 1016.2
20260506183403 5 360 8.0 17.7 0.00 0.00 0.00 50 1016.1
20260506183317 5 360 9.7 17.7 0.00 0.00 0.00 50 1016.3
20260506183203 5 360 11.3 22.5 0.00 0.00 0.00 51 1016.2
20260506183103 5 360 11.3 22.5 0.00 0.00 0.00 50 1016.2
20260506183017 5 360 11.3 22.5 0.00 0.00 0.00 50 1016.1
20260506182904 5 360 11.3 22.5 0.00 0.00 0.00 50 1016.2
20260506182804 5 360 9.7 22.5 0.00 0.00 0.00 51 1016.1
20260506182704 5 360 9.7 22.5 0.00 0.00 0.00 51 1016.1
20260506182603 5 360 9.7 22.5 0.00 0.00 0.00 49 1016.1
20260506182503 5 360 11.3 22.5 0.00 0.00 0.00 48 1016.2
20260506182403 5 360 11.3 22.5 0.00 0.00 0.00 49 1016.2
20260506182319 5 360 11.3 22.5 0.00 0.00 0.00 50 1016.3
20260506182204 5 360 9.7 22.5 0.00 0.00 0.00 50 1016.3
20260506182103 5 360 8.0 17.7 0.00 0.00 0.00 50 1016.3
20260506182004 5 360 6.4 17.7 0.00 0.00 0.00 51 1016.2
20260506181917 5 360 6.4 17.7 0.00 0.00 0.00 50 1016.2
20260506181803 5 360 6.4 17.7 0.00 0.00 0.00 50 1016.1
20260506181703 5 360 6.4 17.7 0.00 0.00 0.00 50 1016.2
20260506181603 5 360 6.4 17.7 0.00 0.00 0.00 50 1016.2
20260506181503 5 360 6.4 17.7 0.00 0.00 0.00 50 1016.2
20260506181403 5 360 8.0 19.3 0.00 0.00 0.00 50 1016.2
20260506181304 5 360 8.0 19.3 0.00 0.00 0.00 49 1016.2
20260506181203 5 360 8.0 19.3 0.00 0.00 0.00 50 1016.2
20260506181103 5 360 8.0 19.3 0.00 0.00 0.00 50 1016.2
20260506181017 5 360 8.0 19.3 0.00 0.00 0.00 50 1016.2
20260506180904 5 360 9.7 19.3 0.00 0.00 0.00 51 1016.2
20260506180804 5 360 9.7 19.3 0.00 0.00 0.00 50 1016.2
20260506180718 5 360 8.0 19.3 0.00 0.00 0.00 49 1016.2
20260506180603 5 360 8.0 19.3 0.00 0.00 0.00 49 1016.3
20260506180503 5 360 8.0 19.3 0.00 0.00 0.00 49 1016.3
20260506180404 5 360 8.0 19.3 0.00 0.00 0.00 49 1016.3
20260506180303 5 360 6.4 19.3 0.00 0.00 0.00 51 1016.3
20260506180204 5 360 6.4 19.3 0.00 0.00 0.00 50 1016.3
20260506180104 5 360 6.4 19.3 0.00 0.00 0.00 51 1016.3
20260506180005 5 360 8.0 19.3 0.00 0.00 0.00 50 1016.2
20260506175903 5 360 6.4 19.3 0.00 0.00 0.00 50 1016.3
20260506175804 5 360 6.4 14.5 0.00 0.00 0.00 51 1016.3
20260506175703 5 360 6.4 14.5 0.00 0.00 0.00 51 1016.3
20260506175604 5 360 8.0 16.1 0.00 0.00 0.00 51 1016.2
20260506175518 5 360 8.0 16.1 0.00 0.00 0.00 51 1016.2
20260506175418 5 360 8.0 16.1 0.00 0.00 0.00 51 1016.3
20260506175306 5 360 8.0 16.1 0.00 0.00 0.00 51 1016.3
20260506175204 5 360 6.4 16.1 0.00 0.00 0.00 52 1016.3
20260506175104 5 360 6.4 16.1 0.00 0.00 0.00 51 1016.3
20260506175004 5 360 6.4 16.1 0.00 0.00 0.00 51 1016.3
20260506174903 5 360 6.4 16.1 0.00 0.00 0.00 51 1016.3
20260506174803 5 360 6.4 16.1 0.00 0.00 0.00 51 1016.3
20260506174717 5 360 6.4 16.1 0.00 0.00 0.00 51 1016.3
20260506174603 5 360 6.4 16.1 0.00 0.00 0.00 52 1016.3
20260506174503 5 360 6.4 19.3 0.00 0.00 0.00 52 1016.3
20260506174403 5 360 6.4 19.3 0.00 0.00 0.00 52 1016.3
20260506174303 5 360 8.0 19.3 0.00 0.00 0.00 52 1016.4
20260506174204 5 360 8.0 19.3 0.00 0.00 0.00 52 1016.4
20260506174103 5 360 8.0 19.3 0.00 0.00 0.00 51 1016.4
20260506174004 5 360 8.0 19.3 0.00 0.00 0.00 51 1016.4
20260506173903 5 360 8.0 19.3 0.00 0.00 0.00 51 1016.4
20260506173817 5 360 8.0 19.3 0.00 0.00 0.00 51 1016.3
20260506173704 5 360 8.0 19.3 0.00 0.00 0.00 50 1016.4
20260506173618 5 360 8.0 19.3 0.00 0.00 0.00 50 1016.4
20260506173503 5 360 8.0 19.3 0.00 0.00 0.00 50 1016.4
20260506173404 5 360 8.0 16.1 0.00 0.00 0.00 52 1016.4
20260506173317 5 360 8.0 16.1 0.00 0.00 0.00 52 1016.4
20260506173203 5 360 6.4 14.5 0.00 0.00 0.00 52 1016.3
20260506173104 5 360 8.0 14.5 0.00 0.00 0.00 52 1016.4
20260506173003 5 360 8.0 14.5 0.00 0.00 0.00 52 1016.4
20260506172903 4 360 8.0 14.5 0.00 0.00 0.00 52 1016.4
20260506172803 4 360 8.0 14.5 0.00 0.00 0.00 52 1016.4
20260506172704 4 360 8.0 14.5 0.00 0.00 0.00 51 1016.5
20260506172603 5 360 6.4 12.9 0.00 0.00 0.00 51 1016.4
20260506172504 5 360 8.0 20.9 0.00 0.00 0.00 52 1016.5
20260506172403 5 360 8.0 20.9 0.00 0.00 0.00 52 1016.4
20260506172307 5 360 8.0 20.9 0.00 0.00 0.00 52 1016.4
20260506172204 5 360 8.0 20.9 0.00 0.00 0.00 50 1016.4
20260506172103 5 360 8.0 20.9 0.00 0.00 0.00 51 1016.4
20260506172003 5 360 8.0 20.9 0.00 0.00 0.00 51 1016.4
20260506171903 5 360 8.0 20.9 0.00 0.00 0.00 51 1016.3
20260506171803 5 360 8.0 20.9 0.00 0.00 0.00 51 1016.4
20260506171703 5 360 8.0 20.9 0.00 0.00 0.00 51 1016.4
20260506171603 5 360 8.0 20.9 0.00 0.00 0.00 51 1016.4
20260506171503 5 360 9.7 20.9 0.00 0.00 0.00 52 1016.4
20260506171403 5 360 8.0 14.5 0.00 0.00 0.00 51 1016.5
20260506171304 5 360 8.0 22.5 0.00 0.00 0.00 50 1016.5
20260506171203 5 360 8.0 22.5 0.00 0.00 0.00 50 1016.4
20260506171104 5 360 8.0 22.5 0.00 0.00 0.00 50 1016.5
20260506171003 5 360 8.0 22.5 0.00 0.00 0.00 51 1016.5
20260506170903 5 360 8.0 22.5 0.00 0.00 0.00 51 1016.6
20260506170803 5 360 8.0 22.5 0.00 0.00 0.00 51 1016.5
20260506170704 5 360 8.0 22.5 0.00 0.00 0.00 52 1016.5
20260506170603 5 360 8.0 22.5 0.00 0.00 0.00 52 1016.6
20260506170503 5 360 8.0 22.5 0.00 0.00 0.00 52 1016.5
20260506170403 5 360 8.0 22.5 0.00 0.00 0.00 51 1016.6
20260506170304 5 360 6.4 22.5 0.00 0.00 0.00 51 1016.7
20260506170217 5 360 8.0 25.7 0.00 0.00 0.00 52 1016.6
20260506170103 5 360 8.0 25.7 0.00 0.00 0.00 51 1016.7
20260506170004 5 360 9.7 25.7 0.00 0.00 0.00 52 1016.6
20260506165917 5 360 9.7 25.7 0.00 0.00 0.00 52 1016.6
20260506165803 5 360 9.7 25.7 0.00 0.00 0.00 52 1016.6
20260506165703 5 360 9.7 25.7 0.00 0.00 0.00 52 1016.6
20260506165603 5 360 9.7 25.7 0.00 0.00 0.00 52 1016.6
20260506165504 5 360 9.7 25.7 0.00 0.00 0.00 52 1016.6
20260506165404 4 360 11.3 25.7 0.00 0.00 0.00 52 1016.6
20260506165305 4 360 11.3 25.7 0.00 0.00 0.00 52 1016.5
20260506165203 4 360 9.7 25.7 0.00 0.00 0.00 51 1016.5
20260506165103 4 360 9.7 25.7 0.00 0.00 0.00 52 1016.5
20260506165003 4 360 8.0 25.7 0.00 0.00 0.00 52 1016.5
20260506164903 4 360 8.0 19.3 0.00 0.00 0.00 52 1016.5
20260506164804 4 360 8.0 19.3 0.00 0.00 0.00 52 1016.5
20260506164703 4 360 8.0 19.3 0.00 0.00 0.00 52 1016.5
20260506164604 4 360 8.0 19.3 0.00 0.00 0.00 52 1016.5
20260506164503 4 360 8.0 19.3 0.00 0.00 0.00 52 1016.5
20260506164404 4 360 8.0 19.3 0.00 0.00 0.00 52 1016.5
20260506164304 4 360 8.0 19.3 0.00 0.00 0.00 52 1016.5
20260506164203 4 360 6.4 19.3 0.00 0.00 0.00 52 1016.5
20260506164117 4 360 8.0 19.3 0.00 0.00 0.00 52 1016.6
20260506164003 4 360 8.0 19.3 0.00 0.00 0.00 52 1016.6
20260506163917 4 360 8.0 19.3 0.00 0.00 0.00 52 1016.6
20260506163803 4 360 8.0 19.3 0.00 0.00 0.00 52 1016.7
20260506163703 4 360 8.0 19.3 0.00 0.00 0.00 52 1016.6
20260506163603 4 360 8.0 19.3 0.00 0.00 0.00 52 1016.5
20260506163503 4 360 8.0 19.3 0.00 0.00 0.00 52 1016.6
20260506163403 4 360 9.7 19.3 0.00 0.00 0.00 52 1016.5
20260506163303 4 360 9.7 19.3 0.00 0.00 0.00 52 1016.6
20260506163204 4 360 9.7 19.3 0.00 0.00 0.00 52 1016.5
20260506163103 4 360 8.0 19.3 0.00 0.00 0.00 51 1016.5
20260506163003 4 360 8.0 16.1 0.00 0.00 0.00 51 1016.5
20260506162903 4 360 8.0 24.1 0.00 0.00 0.00 52 1016.5
20260506162803 4 360 8.0 24.1 0.00 0.00 0.00 52 1016.5
20260506162717 4 360 9.7 24.1 0.00 0.00 0.00 51 1016.4
20260506162605 4 360 9.7 24.1 0.00 0.00 0.00 52 1016.4
20260506162505 4 360 8.0 24.1 0.00 0.00 0.00 52 1016.4
20260506162404 4 360 9.7 24.1 0.00 0.00 0.00 52 1016.4
20260506162306 4 360 8.0 24.1 0.00 0.00 0.00 52 1016.4
20260506162217 4 360 8.0 24.1 0.00 0.00 0.00 52 1016.4
20260506162118 4 360 8.0 24.1 0.00 0.00 0.00 52 1016.4
20260506162003 4 360 8.0 24.1 0.00 0.00 0.00 52 1016.4
20260506161903 4 360 8.0 24.1 0.00 0.00 0.00 52 1016.4
20260506161804 4 360 8.0 20.9 0.00 0.00 0.00 52 1016.4
20260506161703 4 360 8.0 20.9 0.00 0.00 0.00 51 1016.5
20260506161603 4 360 6.4 20.9 0.00 0.00 0.00 51 1016.5
20260506161503 4 360 6.4 20.9 0.00 0.00 0.00 51 1016.4
20260506161417 4 360 6.4 20.9 0.00 0.00 0.00 52 1016.5
20260506161303 4 360 8.0 20.9 0.00 0.00 0.00 51 1016.4
20260506161217 4 360 6.4 20.9 0.00 0.00 0.00 51 1016.4
20260506161103 4 360 6.4 16.1 0.00 0.00 0.00 53 1016.4
20260506161003 4 360 6.4 16.1 0.00 0.00 0.00 53 1016.4
20260506160903 4 360 9.7 22.5 0.00 0.00 0.00 53 1016.4
20260506160803 4 360 9.7 22.5 0.00 0.00 0.00 53 1016.4
20260506160717 4 360 9.7 22.5 0.00 0.00 0.00 53 1016.4
20260506160603 4 360 9.7 22.5 0.00 0.00 0.00 52 1016.4
20260506160503 4 360 9.7 22.5 0.00 0.00 0.00 52 1016.4
20260506160417 4 360 9.7 22.5 0.00 0.00 0.00 52 1016.4
20260506160317 4 360 9.7 22.5 0.00 0.00 0.00 52 1016.4
20260506160203 4 360 9.7 22.5 0.00 0.00 0.00 51 1016.4
20260506160103 4 360 9.7 22.5 0.00 0.00 0.00 51 1016.4
20260506160003 4 360 9.7 22.5 0.00 0.00 0.00 51 1016.4
20260506155903 4 360 8.0 22.5 0.00 0.00 0.00 53 1016.3
20260506155803 4 360 6.4 14.5 0.00 0.00 0.00 53 1016.4
20260506155703 4 360 6.4 14.5 0.00 0.00 0.00 53 1016.4
20260506155603 4 360 8.0 14.5 0.00 0.00 0.00 53 1016.4
20260506155517 4 360 9.7 25.7 0.00 0.00 0.00 54 1016.3
20260506155403 4 360 9.7 25.7 0.00 0.00 0.00 54 1016.3
20260506155306 4 360 9.7 25.7 0.00 0.00 0.00 53 1016.4
20260506155203 4 360 9.7 25.7 0.00 0.00 0.00 54 1016.4
20260506155117 4 360 9.7 25.7 0.00 0.00 0.00 54 1016.4
20260506155004 4 360 9.7 25.7 0.00 0.00 0.00 54 1016.4
20260506154903 4 360 9.7 25.7 0.00 0.00 0.00 53 1016.4
20260506154803 4 360 9.7 25.7 0.00 0.00 0.00 54 1016.3
20260506154703 4 360 9.7 25.7 0.00 0.00 0.00 53 1016.3
20260506154603 4 360 9.7 25.7 0.00 0.00 0.00 54 1016.3
20260506154517 4 360 8.0 25.7 0.00 0.00 0.00 54 1016.3
20260506154418 4 360 6.4 19.3 0.00 0.00 0.00 54 1016.4
20260506154304 4 360 6.4 19.3 0.00 0.00 0.00 53 1016.3
20260506154203 4 360 6.4 19.3 0.00 0.00 0.00 54 1016.3
20260506154104 4 360 8.0 19.3 0.00 0.00 0.00 53 1016.3
20260506154004 4 360 9.7 19.3 0.00 0.00 0.00 53 1016.3
20260506153904 4 360 8.0 19.3 0.00 0.00 0.00 54 1016.3
20260506153803 4 360 8.0 16.1 0.00 0.00 0.00 54 1016.3
20260506153703 4 360 8.0 16.1 0.00 0.00 0.00 54 1016.3
20260506153603 4 360 8.0 16.1 0.00 0.00 0.00 54 1016.3
20260506153503 4 360 8.0 16.1 0.00 0.00 0.00 54 1016.3
20260506153403 3 360 8.0 16.1 0.00 0.00 0.00 54 1016.3
20260506153303 3 360 8.0 16.1 0.00 0.00 0.00 55 1016.3
20260506153217 3 360 8.0 16.1 0.00 0.00 0.00 54 1016.3
20260506153103 3 360 8.0 16.1 0.00 0.00 0.00 54 1016.3
20260506153017 3 360 8.0 16.1 0.00 0.00 0.00 55 1016.4
20260506152903 3 360 6.4 14.5 0.00 0.00 0.00 55 1016.3
20260506152804 3 360 6.4 14.5 0.00 0.00 0.00 55 1016.3
20260506152717 3 360 8.0 14.5 0.00 0.00 0.00 56 1016.4
20260506152603 3 360 8.0 14.5 0.00 0.00 0.00 55 1016.3
20260506152504 3 360 8.0 14.5 0.00 0.00 0.00 55 1016.3
20260506152417 3 360 6.4 14.5 0.00 0.00 0.00 55 1016.4
20260506152305 3 360 6.4 14.5 0.00 0.00 0.00 55 1016.3
20260506152203 3 360 6.4 14.5 0.00 0.00 0.00 55 1016.4
20260506152103 3 360 6.4 14.5 0.00 0.00 0.00 55 1016.3
20260506152003 3 360 6.4 14.5 0.00 0.00 0.00 55 1016.3
20260506151903 3 360 6.4 14.5 0.00 0.00 0.00 55 1016.4
20260506151817 3 360 6.4 14.5 0.00 0.00 0.00 55 1016.4
20260506151704 3 360 6.4 11.3 0.00 0.00 0.00 55 1016.3
20260506151603 3 360 6.4 20.9 0.00 0.00 0.00 55 1016.3
20260506151517 3 360 8.0 20.9 0.00 0.00 0.00 56 1016.4
20260506151403 3 360 8.0 20.9 0.00 0.00 0.00 56 1016.4
20260506151303 3 360 8.0 20.9 0.00 0.00 0.00 56 1016.4
20260506151203 3 360 9.7 20.9 0.00 0.00 0.00 55 1016.4
20260506151103 3 360 9.7 20.9 0.00 0.00 0.00 55 1016.3
20260506151003 3 360 9.7 20.9 0.00 0.00 0.00 55 1016.4
20260506150904 3 360 9.7 20.9 0.00 0.00 0.00 55 1016.3
20260506150817 3 360 9.7 20.9 0.00 0.00 0.00 54 1016.3
20260506150704 3 360 9.7 20.9 0.00 0.00 0.00 54 1016.4
20260506150604 3 360 8.0 20.9 0.00 0.00 0.00 55 1016.3
20260506150504 3 360 8.0 20.9 0.00 0.00 0.00 55 1016.3
20260506150403 3 360 8.0 16.1 0.00 0.00 0.00 55 1016.4
20260506150304 3 360 8.0 16.1 0.00 0.00 0.00 55 1016.3
20260506150203 3 360 6.4 16.1 0.00 0.00 0.00 55 1016.3
20260506150117 3 360 8.0 20.9 0.00 0.00 0.00 54 1016.3
20260506150004 3 360 8.0 20.9 0.00 0.00 0.00 54 1016.3
20260506145903 3 360 8.0 20.9 0.00 0.00 0.00 53 1016.3
20260506145803 3 360 8.0 20.9 0.00 0.00 0.00 53 1016.3
20260506145703 4 360 8.0 20.9 0.00 0.00 0.00 53 1016.3
20260506145603 3 360 8.0 20.9 0.00 0.00 0.00 53 1016.3
20260506145503 3 360 9.7 20.9 0.00 0.00 0.00 53 1016.3
20260506145417 3 360 9.7 20.9 0.00 0.00 0.00 53 1016.3
20260506145305 3 360 9.7 20.9 0.00 0.00 0.00 53 1016.3
20260506145217 3 360 9.7 20.9 0.00 0.00 0.00 51 1016.3
20260506145117 4 360 9.7 20.9 0.00 0.00 0.00 51 1016.3
20260506145017 4 360 11.3 20.9 0.00 0.00 0.00 51 1016.3
20260506144903 4 360 11.3 20.9 0.00 0.00 0.00 51 1016.3
20260506144803 4 360 9.7 20.9 0.00 0.00 0.00 52 1016.3
20260506144703 4 360 9.7 20.9 0.00 0.00 0.00 52 1016.3
20260506144603 4 360 11.3 20.9 0.00 0.00 0.00 52 1016.3
20260506144503 4 360 9.7 20.9 0.00 0.00 0.00 51 1016.3
20260506144404 4 360 9.7 20.9 0.00 0.00 0.00 51 1016.3
20260506144303 4 360 9.7 20.9 0.00 0.00 0.00 51 1016.3
20260506144204 4 360 9.7 20.9 0.00 0.00 0.00 51 1016.3
20260506144104 4 360 9.7 20.9 0.00 0.00 0.00 51 1016.3
20260506144017 4 360 9.7 20.9 0.00 0.00 0.00 51 1016.3
20260506143903 4 360 8.0 19.3 0.00 0.00 0.00 51 1016.1
20260506143803 4 360 8.0 19.3 0.00 0.00 0.00 51 1016.2
20260506143703 4 360 8.0 19.3 0.00 0.00 0.00 51 1016.1
20260506143603 4 360 6.4 19.3 0.00 0.00 0.00 52 1016.1
20260506143518 4 360 6.4 14.5 0.00 0.00 0.00 51 1016.1
20260506143403 4 360 6.4 14.5 0.00 0.00 0.00 51 1016.1
20260506143303 4 360 6.4 14.5 0.00 0.00 0.00 52 1016.2
20260506143203 4 360 6.4 14.5 0.00 0.00 0.00 53 1016.2
20260506143103 4 360 4.8 14.5 0.00 0.00 0.00 53 1016.3
20260506143004 4 360 6.4 12.9 0.00 0.00 0.00 53 1016.3
20260506142917 4 360 4.8 12.9 0.00 0.00 0.00 52 1016.2
20260506142803 4 360 6.4 12.9 0.00 0.00 0.00 53 1016.2
20260506142704 4 360 6.4 12.9 0.00 0.00 0.00 52 1016.3
20260506142603 4 360 6.4 12.9 0.00 0.00 0.00 52 1016.2
20260506142503 4 360 6.4 12.9 0.00 0.00 0.00 52 1016.2
20260506142404 4 360 6.4 16.1 0.00 0.00 0.00 53 1016.3
20260506142306 4 360 8.0 16.1 0.00 0.00 0.00 53 1016.2
20260506142203 4 360 8.0 16.1 0.00 0.00 0.00 53 1016.3
20260506142103 4 360 6.4 16.1 0.00 0.00 0.00 52 1016.2
20260506142003 4 360 8.0 16.1 0.00 0.00 0.00 52 1016.2
20260506141903 4 360 8.0 16.1 0.00 0.00 0.00 52 1016.3
20260506141817 4 360 8.0 16.1 0.00 0.00 0.00 52 1016.2
20260506141717 4 360 8.0 16.1 0.00 0.00 0.00 52 1016.2
20260506141604 4 360 9.7 20.9 0.00 0.00 0.00 52 1016.2
20260506141504 4 360 9.7 20.9 0.00 0.00 0.00 52 1016.2
20260506141403 4 360 9.7 20.9 0.00 0.00 0.00 52 1016.1
20260506141303 4 360 8.0 20.9 0.00 0.00 0.00 52 1016.2
20260506141203 4 360 9.7 20.9 0.00 0.00 0.00 52 1016.1
20260506141103 4 360 11.3 20.9 0.00 0.00 0.00 52 1016.1
20260506141004 5 360 11.3 20.9 0.00 0.00 0.00 52 1016.1
20260506140903 5 360 9.7 20.9 0.00 0.00 0.00 51 1016.2
20260506140817 5 360 9.7 20.9 0.00 0.00 0.00 50 1016.2
20260506140717 5 360 9.7 20.9 0.00 0.00 0.00 50 1016.2
20260506140603 5 360 8.0 20.9 0.00 0.00 0.00 50 1016.2
20260506140503 5 360 9.7 19.3 0.00 0.00 0.00 50 1016.1
20260506140403 5 360 8.0 19.3 0.00 0.00 0.00 50 1016.2
20260506140303 5 360 8.0 19.3 0.00 0.00 0.00 51 1016.1
20260506140203 5 360 8.0 19.3 0.00 0.00 0.00 53 1016.1
20260506140103 5 360 6.4 17.7 0.00 0.00 0.00 53 1016.1
20260506140020 5 360 6.4 11.3 0.00 0.00 0.00 53 1016.1
20260506135905 5 360 6.4 11.3 0.00 0.00 0.00 53 1016.1
20260506135805 5 360 6.4 11.3 0.00 0.00 0.00 52 1016.1
20260506135705 5 360 4.8 11.3 0.00 0.00 0.00 51 1016.1
20260506135605 5 360 4.8 11.3 0.00 0.00 0.00 52 1016.0
20260506135505 5 360 4.8 11.3 0.00 0.00 0.00 53 1016.1
20260506135404 5 360 4.8 9.7 0.00 0.00 0.00 53 1016.0
20260506135306 5 360 4.8 6.4 0.00 0.00 0.00 54 1016.0
20260506135206 5 360 6.4 14.5 0.00 0.00 0.00 55 1016.0
20260506135104 4 360 6.4 14.5 0.00 0.00 0.00 55 1016.0
20260506135005 4 360 6.4 14.5 0.00 0.00 0.00 56 1016.0
20260506134904 4 360 6.4 14.5 0.00 0.00 0.00 56 1016.0
20260506134805 4 360 6.4 14.5 0.00 0.00 0.00 56 1016.0
20260506134704 4 360 6.4 14.5 0.00 0.00 0.00 57 1016.0
20260506134619 4 360 6.4 14.5 0.00 0.00 0.00 57 1015.9
20260506134505 4 360 6.4 14.5 0.00 0.00 0.00 58 1016.0
20260506134405 4 360 6.4 14.5 0.00 0.00 0.00 56 1016.0
20260506134305 4 360 6.4 14.5 0.00 0.00 0.00 56 1016.0
20260506134204 4 360 4.8 14.5 0.00 0.00 0.00 57 1016.0
20260506134104 3 360 3.2 12.9 0.00 0.00 0.00 58 1016.0
20260506134005 3 360 3.2 6.4 0.00 0.00 0.00 59 1015.9
20260506133904 3 360 3.2 6.4 0.00 0.00 0.00 59 1015.9
20260506133805 3 360 4.8 16.1 0.00 0.00 0.00 59 1016.0
20260506133705 3 360 4.8 16.1 0.00 0.00 0.00 59 1015.9
20260506133605 3 360 4.8 16.1 0.00 0.00 0.00 59 1015.9
20260506133505 3 360 4.8 16.1 0.00 0.00 0.00 60 1015.9
20260506133419 3 360 6.4 16.1 0.00 0.00 0.00 60 1015.9
20260506133305 3 360 6.4 16.1 0.00 0.00 0.00 60 1015.9
20260506133205 3 360 6.4 16.1 0.00 0.00 0.00 60 1016.0
20260506133105 3 360 6.4 16.1 0.00 0.00 0.00 60 1016.0
20260506133005 3 360 6.4 16.1 0.00 0.00 0.00 60 1015.9
20260506132905 3 360 6.4 16.1 0.00 0.00 0.00 60 1016.0
20260506132819 3 360 4.8 16.1 0.00 0.00 0.00 60 1016.0
20260506132705 3 360 4.8 9.7 0.00 0.00 0.00 61 1015.9
20260506132619 2 360 4.8 9.7 0.00 0.00 0.00 61 1015.9
20260506132504 2 360 4.8 11.3 0.00 0.00 0.00 61 1015.9
20260506132419 2 360 4.8 11.3 0.00 0.00 0.00 62 1015.9
20260506132319 2 360 4.8 11.3 0.00 0.00 0.00 63 1015.9
20260506132205 2 360 4.8 11.3 0.00 0.00 0.00 63 1015.9
20260506132104 2 360 4.8 11.3 0.00 0.00 0.00 63 1015.8
20260506132005 2 360 4.8 11.3 0.00 0.00 0.00 63 1015.9
20260506131905 2 360 4.8 11.3 0.00 0.00 0.00 63 1015.8
20260506131805 2 360 4.8 11.3 0.00 0.00 0.00 62 1015.8
20260506131705 2 360 6.4 11.3 0.00 0.00 0.00 62 1015.8
20260506131604 2 360 4.8 11.3 0.00 0.00 0.00 62 1015.8
20260506131505 2 360 4.8 11.3 0.00 0.00 0.00 64 1015.8
20260506131418 2 360 4.8 8.0 0.00 0.00 0.00 64 1015.8
20260506131319 2 360 3.2 8.0 0.00 0.00 0.00 64 1015.7
20260506131218 2 360 3.2 8.0 0.00 0.00 0.00 64 1015.8
20260506131105 2 360 3.2 9.7 0.00 0.00 0.00 64 1015.7
20260506131005 2 360 3.2 9.7 0.00 0.00 0.00 63 1015.7
20260506130905 2 360 4.8 9.7 0.00 0.00 0.00 63 1015.7
20260506130805 2 360 4.8 9.7 0.00 0.00 0.00 63 1015.6
20260506130705 2 360 4.8 9.7 0.00 0.00 0.00 64 1015.6
20260506130604 2 360 4.8 9.7 0.00 0.00 0.00 64 1015.6
20260506130505 2 360 4.8 9.7 0.00 0.00 0.00 64 1015.6
20260506130404 2 360 4.8 9.7 0.00 0.00 0.00 64 1015.6
20260506130319 2 360 4.8 9.7 0.00 0.00 0.00 64 1015.6
20260506130205 2 360 4.8 9.7 0.00 0.00 0.00 64 1015.5
20260506130105 2 360 4.8 9.7 0.00 0.00 0.00 65 1015.6
20260506130006 2 360 3.2 8.0 0.00 0.00 0.00 64 1015.5
20260506125905 2 360 3.2 8.0 0.00 0.00 0.00 65 1015.5
20260506125819 1 360 3.2 8.0 0.00 0.00 0.00 65 1015.5
20260506125705 1 360 3.2 6.4 0.00 0.00 0.00 65 1015.5
20260506125605 1 360 3.2 6.4 0.00 0.00 0.00 65 1015.5
20260506125505 1 360 3.2 8.0 0.00 0.00 0.00 65 1015.5
20260506125405 1 360 3.2 8.0 0.00 0.00 0.00 65 1015.5
20260506125319 1 360 3.2 8.0 0.00 0.00 0.00 65 1015.5
20260506125205 1 360 3.2 8.0 0.00 0.00 0.00 65 1015.5
20260506125104 1 360 3.2 8.0 0.00 0.00 0.00 65 1015.4
20260506125019 1 360 3.2 8.0 0.00 0.00 0.00 65 1015.4
20260506124906 1 360 3.2 8.0 0.00 0.00 0.00 65 1015.4
20260506124805 1 360 4.8 8.0 0.00 0.00 0.00 65 1015.4
20260506124705 1 360 4.8 8.0 0.00 0.00 0.00 65 1015.4
20260506124604 1 360 4.8 8.0 0.00 0.00 0.00 65 1015.4
20260506124505 1 360 4.8 8.0 0.00 0.00 0.00 65 1015.4
20260506124404 1 360 4.8 8.0 0.00 0.00 0.00 65 1015.4
20260506124304 1 360 4.8 8.0 0.00 0.00 0.00 65 1015.4
20260506124204 1 360 3.2 8.0 0.00 0.00 0.00 65 1015.4
20260506124105 1 360 4.8 8.0 0.00 0.00 0.00 65 1015.4
20260506124004 1 360 3.2 8.0 0.00 0.00 0.00 65 1015.5
20260506123905 1 360 3.2 8.0 0.00 0.00 0.00 65 1015.5
20260506123819 1 360 3.2 14.5 0.00 0.00 0.00 65 1015.5
20260506123704 1 360 4.8 14.5 0.00 0.00 0.00 65 1015.6
20260506123618 1 360 4.8 14.5 0.00 0.00 0.00 66 1015.5
20260506123504 1 360 4.8 14.5 0.00 0.00 0.00 66 1015.6
20260506123418 1 360 4.8 14.5 0.00 0.00 0.00 66 1015.5
20260506123305 1 360 4.8 14.5 0.00 0.00 0.00 66 1015.5
20260506123205 1 360 4.8 14.5 0.00 0.00 0.00 66 1015.5
20260506123104 1 360 4.8 14.5 0.00 0.00 0.00 66 1015.5
20260506123005 1 360 4.8 14.5 0.00 0.00 0.00 66 1015.5
20260506122919 1 360 4.8 14.5 0.00 0.00 0.00 66 1015.4
20260506122805 1 360 3.2 14.5 0.00 0.00 0.00 67 1015.4
20260506122704 1 360 3.2 8.0 0.00 0.00 0.00 67 1015.4
20260506122604 1 360 3.2 6.4 0.00 0.00 0.00 67 1015.4
20260506122505 1 360 3.2 4.8 0.00 0.00 0.00 67 1015.3
20260506122405 1 360 3.2 9.7 0.00 0.00 0.00 68 1015.4
20260506122306 1 360 3.2 9.7 0.00 0.00 0.00 68 1015.3
20260506122204 1 360 4.8 9.7 0.00 0.00 0.00 68 1015.3
20260506122105 1 360 3.2 9.7 0.00 0.00 0.00 68 1015.3
20260506122004 1 360 4.8 9.7 0.00 0.00 0.00 68 1015.3
20260506121905 1 360 3.2 9.7 0.00 0.00 0.00 68 1015.3
20260506121805 1 360 3.2 9.7 0.00 0.00 0.00 68 1015.2
20260506121705 1 360 4.8 9.7 0.00 0.00 0.00 69 1015.2
20260506121605 1 360 4.8 9.7 0.00 0.00 0.00 69 1015.2
20260506121505 1 360 4.8 9.7 0.00 0.00 0.00 69 1015.2
20260506121405 1 360 4.8 9.7 0.00 0.00 0.00 69 1015.2
20260506121305 1 360 3.2 8.0 0.00 0.00 0.00 69 1015.1
20260506121205 0 360 3.2 8.0 0.00 0.00 0.00 69 1015.1
20260506121104 0 360 3.2 8.0 0.00 0.00 0.00 69 1015.1
20260506121018 0 360 3.2 8.0 0.00 0.00 0.00 69 1015.1
20260506120918 0 360 3.2 8.0 0.00 0.00 0.00 69 1015.1
20260506120805 0 360 3.2 8.0 0.00 0.00 0.00 69 1015.0
20260506120704 0 360 3.2 8.0 0.00 0.00 0.00 69 1015.0
20260506120604 0 360 3.2 6.4 0.00 0.00 0.00 69 1015.0
20260506120519 0 360 3.2 6.4 0.00 0.00 0.00 69 1015.0
20260506120405 0 360 3.2 6.4 0.00 0.00 0.00 69 1015.0
20260506120319 0 360 3.2 6.4 0.00 0.00 0.00 69 1015.0
20260506120205 0 360 3.2 6.4 0.00 0.00 0.00 69 1015.0
20260506120119 0 360 3.2 6.4 0.00 0.00 0.00 69 1015.0
20260506120005 0 360 1.6 6.4 0.00 0.00 0.00 69 1015.0
20260506115905 0 360 1.6 6.4 0.00 0.00 0.00 69 1015.0
20260506115805 0 360 1.6 6.4 0.00 0.00 0.00 69 1014.9
20260506115718 0 360 1.6 6.4 0.00 0.00 0.00 69 1014.9
20260506115606 0 360 1.6 6.4 0.00 0.00 0.00 69 1014.9
20260506115504 0 360 1.6 6.4 0.00 0.00 0.00 69 1014.9
20260506115405 0 360 1.6 3.2 0.00 0.00 0.00 69 1014.9
20260506115307 0 360 1.6 3.2 0.00 0.00 0.00 69 1014.9
20260506115204 0 360 1.6 3.2 0.00 0.00 0.00 69 1014.8
20260506115104 1 360 1.6 8.0 0.00 0.00 0.00 69 1014.8
20260506115019 1 360 1.6 8.0 0.00 0.00 0.00 69 1014.8
20260506114904 1 360 3.2 8.0 0.00 0.00 0.00 69 1014.8
20260506114805 1 360 3.2 8.0 0.00 0.00 0.00 69 1014.8
20260506114705 1 360 3.2 8.0 0.00 0.00 0.00 69 1014.8
20260506114605 1 360 3.2 8.0 0.00 0.00 0.00 69 1014.8
20260506114518 1 360 3.2 8.0 0.00 0.00 0.00 68 1014.8
20260506114405 1 360 3.2 8.0 0.00 0.00 0.00 68 1014.9
20260506114305 1 360 3.2 8.0 0.00 0.00 0.00 68 1014.8
20260506114204 1 360 3.2 8.0 0.00 0.00 0.00 68 1014.8
20260506114105 1 360 3.2 8.0 0.00 0.00 0.00 68 1014.8
20260506114005 1 360 3.2 6.4 0.00 0.00 0.00 68 1014.7
20260506113905 1 360 3.2 6.4 0.00 0.00 0.00 68 1014.7
20260506113818 1 360 3.2 6.4 0.00 0.00 0.00 68 1014.6
20260506113704 1 360 3.2 6.4 0.00 0.00 0.00 68 1014.6
20260506113604 1 360 3.2 6.4 0.00 0.00 0.00 68 1014.7
20260506113519 1 360 3.2 4.8 0.00 0.00 0.00 68 1014.6
20260506113404 1 360 3.2 6.4 0.00 0.00 0.00 68 1014.6
20260506113304 1 360 3.2 8.0 0.00 0.00 0.00 68 1014.5
20260506113205 1 360 3.2 8.0 0.00 0.00 0.00 68 1014.5
20260506113105 1 360 3.2 8.0 0.00 0.00 0.00 68 1014.5
20260506113005 1 360 3.2 8.0 0.00 0.00 0.00 68 1014.6
20260506112904 1 360 4.8 8.0 0.00 0.00 0.00 68 1014.6
20260506112805 1 360 4.8 8.0 0.00 0.00 0.00 68 1014.6
20260506112704 1 360 4.8 8.0 0.00 0.00 0.00 68 1014.6
20260506112605 1 360 4.8 8.0 0.00 0.00 0.00 68 1014.6
20260506112504 1 360 4.8 8.0 0.00 0.00 0.00 68 1014.6
20260506112404 1 360 4.8 8.0 0.00 0.00 0.00 68 1014.6
20260506112306 1 360 3.2 8.0 0.00 0.00 0.00 68 1014.7
20260506112205 1 360 3.2 8.0 0.00 0.00 0.00 68 1014.6
20260506112104 1 360 3.2 8.0 0.00 0.00 0.00 68 1014.7
20260506112005 1 360 3.2 8.0 0.00 0.00 0.00 68 1014.8
20260506111904 1 360 3.2 8.0 0.00 0.00 0.00 69 1014.8
20260506111805 1 360 3.2 6.4 0.00 0.00 0.00 69 1014.7
20260506111705 1 360 1.6 6.4 0.00 0.00 0.00 69 1014.8
20260506111605 1 360 1.6 4.8 0.00 0.00 0.00 69 1014.8
20260506111505 1 360 1.6 4.8 0.00 0.00 0.00 69 1014.8
20260506111405 0 360 1.6 4.8 0.00 0.00 0.00 69 1014.8
20260506111318 1 360 1.6 4.8 0.00 0.00 0.00 69 1014.8
20260506111204 0 360 1.6 4.8 0.00 0.00 0.00 69 1014.8
20260506111105 0 360 1.6 4.8 0.00 0.00 0.00 69 1014.8
20260506111004 0 360 1.6 4.8 0.00 0.00 0.00 69 1014.7
20260506110919 0 360 1.6 4.8 0.00 0.00 0.00 69 1014.8
20260506110805 0 360 1.6 4.8 0.00 0.00 0.00 69 1014.8
20260506110705 0 360 0.0 4.8 0.00 0.00 0.00 69 1014.8
20260506110604 0 360 1.6 8.0 0.00 0.00 0.00 69 1014.8
20260506110504 0 360 1.6 8.0 0.00 0.00 0.00 69 1014.7
20260506110404 0 360 1.6 8.0 0.00 0.00 0.00 69 1014.8
20260506110305 0 360 1.6 8.0 0.00 0.00 0.00 69 1014.8
20260506110204 0 360 1.6 8.0 0.00 0.00 0.00 69 1014.7
20260506110119 0 360 1.6 8.0 0.00 0.00 0.00 69 1014.7
20260506110005 0 360 1.6 8.0 0.00 0.00 0.00 69 1014.8
20260506105904 0 360 1.6 8.0 0.00 0.00 0.00 69 1014.7
20260506105819 0 360 1.6 8.0 0.00 0.00 0.00 69 1014.8
20260506105718 0 360 3.2 8.0 0.00 0.00 0.00 69 1014.7
20260506105605 0 360 1.6 8.0 0.00 0.00 0.00 70 1014.6
20260506105504 0 360 1.6 4.8 0.00 0.00 0.00 70 1014.6
20260506105419 0 360 1.6 4.8 0.00 0.00 0.00 70 1014.6
20260506105305 0 360 1.6 4.8 0.00 0.00 0.00 70 1014.6
20260506105204 0 360 1.6 4.8 0.00 0.00 0.00 70 1014.6
20260506105104 0 360 1.6 4.8 0.00 0.00 0.00 70 1014.7
20260506105019 0 360 1.6 4.8 0.00 0.00 0.00 71 1014.6
20260506104920 0 360 1.6 4.8 0.00 0.00 0.00 71 1014.7
20260506104805 0 360 1.6 3.2 0.00 0.00 0.00 71 1014.7
20260506104704 0 360 1.6 3.2 0.00 0.00 0.00 71 1014.6
20260506104605 0 360 1.6 3.2 0.00 0.00 0.00 71 1014.6
20260506104505 0 360 1.6 3.2 0.00 0.00 0.00 71 1014.6
20260506104405 0 360 1.6 3.2 0.00 0.00 0.00 71 1014.5
20260506104319 0 360 1.6 3.2 0.00 0.00 0.00 71 1014.5
20260506104205 0 360 1.6 3.2 0.00 0.00 0.00 71 1014.5
20260506104105 0 360 1.6 3.2 0.00 0.00 0.00 72 1014.5
20260506104005 0 360 1.6 3.2 0.00 0.00 0.00 72 1014.5
20260506103904 0 360 1.6 3.2 0.00 0.00 0.00 72 1014.4
20260506103804 0 360 1.6 3.2 0.00 0.00 0.00 72 1014.4
20260506103719 0 360 1.6 3.2 0.00 0.00 0.00 72 1014.4
20260506103604 0 360 1.6 3.2 0.00 0.00 0.00 72 1014.3
20260506103518 0 360 1.6 3.2 0.00 0.00 0.00 72 1014.3
20260506103404 0 360 1.6 3.2 0.00 0.00 0.00 72 1014.3
20260506103304 0 360 0.0 3.2 0.00 0.00 0.00 72 1014.3
20260506103219 0 360 0.0 3.2 0.00 0.00 0.00 72 1014.3
20260506103104 0 360 0.0 3.2 0.00 0.00 0.00 72 1014.3
20260506103004 0 360 0.0 3.2 0.00 0.00 0.00 72 1014.2
20260506102919 0 360 0.0 3.2 0.00 0.00 0.00 72 1014.2
20260506102804 0 360 0.0 3.2 0.00 0.00 0.00 72 1014.3
20260506102705 0 360 0.0 3.2 0.00 0.00 0.00 72 1014.2
20260506102605 0 360 0.0 3.2 0.00 0.00 0.00 72 1014.2
20260506102505 0 360 0.0 3.2 0.00 0.00 0.00 72 1014.2
20260506102404 0 360 1.6 3.2 0.00 0.00 0.00 72 1014.2
20260506102306 0 360 1.6 4.8 0.00 0.00 0.00 72 1014.1
20260506102204 0 360 1.6 4.8 0.00 0.00 0.00 73 1014.2
20260506102118 0 360 1.6 4.8 0.00 0.00 0.00 73 1014.2
20260506102004 0 360 1.6 4.8 0.00 0.00 0.00 73 1014.1
20260506101904 0 360 1.6 4.8 0.00 0.00 0.00 73 1014.2
20260506101805 0 360 1.6 4.8 0.00 0.00 0.00 74 1014.1
20260506101705 0 360 1.6 4.8 0.00 0.00 0.00 74 1014.2
20260506101619 0 360 1.6 4.8 0.00 0.00 0.00 74 1014.2
20260506101506 0 360 1.6 4.8 0.00 0.00 0.00 74 1014.2
20260506101419 0 360 1.6 4.8 0.00 0.00 0.00 74 1014.2
20260506101319 0 360 1.6 4.8 0.00 0.00 0.00 75 1014.2
20260506101205 0 360 0.0 3.2 0.00 0.00 0.00 75 1014.2
20260506101104 0 360 1.6 3.2 0.00 0.00 0.00 75 1014.2
20260506101004 0 360 1.6 3.2 0.00 0.00 0.00 76 1014.2
20260506100905 0 360 1.6 3.2 0.00 0.00 0.00 76 1014.1
20260506100805 0 360 1.6 3.2 0.00 0.00 0.00 76 1014.2
20260506100704 -1 360 0.0 3.2 0.00 0.00 0.00 76 1014.2
20260506100604 -1 360 0.0 3.2 0.00 0.00 0.00 76 1014.2
20260506100504 -1 360 0.0 3.2 0.00 0.00 0.00 76 1014.2
20260506100405 -1 360 0.0 3.2 0.00 0.00 0.00 76 1014.2
20260506100304 -1 360 0.0 3.2 0.00 0.00 0.00 77 1014.3
20260506100204 -1 360 0.0 3.2 0.00 0.00 0.00 77 1014.2
20260506100104 -1 360 0.0 3.2 0.00 0.00 0.00 77 1014.2
20260506100005 -1 360 0.0 3.2 0.00 0.00 0.00 77 1014.3
20260506095918 -1 360 0.0 3.2 0.00 0.00 0.00 77 1014.2
20260506095818 -1 360 0.0 3.2 0.00 0.00 0.00 77 1014.3
20260506095718 -1 360 0.0 3.2 0.00 0.00 0.00 77 1014.2
20260506095605 -1 360 0.0 3.2 0.00 0.00 0.00 77 1014.2
20260506095519 -1 0 0.0 0.0 0.00 0.00 0.00 77 1014.2
20260506095404 -1 0 0.0 0.0 0.00 0.00 0.00 77 1014.2
20260506095306 -1 0 0.0 0.0 0.00 0.00 0.00 77 1014.2
20260506095218 -1 0 0.0 0.0 0.00 0.00 0.00 77 1014.2
20260506095104 -1 0 0.0 0.0 0.00 0.00 0.00 77 1014.3
20260506095005 -1 0 0.0 0.0 0.00 0.00 0.00 77 1014.2
20260506094904 -1 0 0.0 0.0 0.00 0.00 0.00 77 1014.3
20260506094818 -1 0 0.0 3.2 0.00 0.00 0.00 77 1014.3
20260506094704 -1 0 0.0 3.2 0.00 0.00 0.00 77 1014.2
20260506094604 -1 0 0.0 3.2 0.00 0.00 0.00 77 1014.2
20260506094504 -1 360 0.0 3.2 0.00 0.00 0.00 77 1014.3
20260506094405 -1 360 0.0 3.2 0.00 0.00 0.00 77 1014.2
20260506094304 -1 360 0.0 3.2 0.00 0.00 0.00 77 1014.3
20260506094204 -1 360 0.0 3.2 0.00 0.00 0.00 78 1014.3
20260506094104 -1 360 0.0 3.2 0.00 0.00 0.00 78 1014.3
20260506094005 -1 360 0.0 3.2 0.00 0.00 0.00 78 1014.3
20260506093904 -1 360 0.0 3.2 0.00 0.00 0.00 78 1014.3
20260506093805 -1 360 0.0 3.2 0.00 0.00 0.00 78 1014.2
20260506093704 -1 360 0.0 3.2 0.00 0.00 0.00 78 1014.3
20260506093604 -1 360 0.0 3.2 0.00 0.00 0.00 78 1014.3
20260506093504 -1 360 0.0 3.2 0.00 0.00 0.00 78 1014.3
20260506093404 -1 360 0.0 3.2 0.00 0.00 0.00 78 1014.3
20260506093305 -1 360 0.0 3.2 0.00 0.00 0.00 78 1014.3
20260506093204 -1 0 0.0 3.2 0.00 0.00 0.00 77 1014.3
20260506093118 -1 0 0.0 3.2 0.00 0.00 0.00 77 1014.3
20260506093019 -1 0 0.0 3.2 0.00 0.00 0.00 77 1014.4
20260506092904 -1 0 0.0 3.2 0.00 0.00 0.00 77 1014.4
20260506092804 -1 0 0.0 3.2 0.00 0.00 0.00 77 1014.4
20260506092704 -1 0 0.0 3.2 0.00 0.00 0.00 77 1014.4
20260506092604 -1 0 0.0 0.0 0.00 0.00 0.00 77 1014.4
20260506092505 -1 0 0.0 0.0 0.00 0.00 0.00 77 1014.4
20260506092419 -1 0 0.0 0.0 0.00 0.00 0.00 77 1014.4
20260506092319 -1 0 0.0 0.0 0.00 0.00 0.00 77 1014.4
20260506092204 -1 0 0.0 0.0 0.00 0.00 0.00 77 1014.3
20260506092104 -1 0 0.0 0.0 0.00 0.00 0.00 77 1014.3
20260506092005 -1 0 0.0 0.0 0.00 0.00 0.00 77 1014.4
20260506091918 -1 0 0.0 0.0 0.00 0.00 0.00 77 1014.3
20260506091804 -1 0 0.0 0.0 0.00 0.00 0.00 77 1014.3
20260506091704 -1 0 0.0 0.0 0.00 0.00 0.00 76 1014.3
20260506091605 -1 0 0.0 0.0 0.00 0.00 0.00 76 1014.3
20260506091505 -1 0 0.0 0.0 0.00 0.00 0.00 77 1014.3
20260506091404 -1 0 0.0 0.0 0.00 0.00 0.00 77 1014.3
20260506091305 -1 0 0.0 1.6 0.00 0.00 0.00 76 1014.2
20260506091218 -1 0 0.0 1.6 0.00 0.00 0.00 76 1014.3
20260506091104 -1 0 0.0 1.6 0.00 0.00 0.00 76 1014.2
20260506091019 -1 0 0.0 1.6 0.00 0.00 0.00 76 1014.2
20260506090905 -1 0 0.0 1.6 0.00 0.00 0.00 76 1014.2
20260506090819 -1 0 0.0 1.6 0.00 0.00 0.00 76 1014.2
20260506090704 -1 0 0.0 1.6 0.00 0.00 0.00 76 1014.2
20260506090604 -1 0 0.0 1.6 0.00 0.00 0.00 76 1014.2
20260506090504 -1 0 0.0 1.6 0.00 0.00 0.00 76 1014.2
20260506090405 -1 0 0.0 1.6 0.00 0.00 0.00 76 1014.2
20260506090318 -1 0 0.0 1.6 0.00 0.00 0.00 75 1014.2
20260506090205 -1 0 0.0 0.0 0.00 0.00 0.00 75 1014.2
20260506090105 -1 0 0.0 0.0 0.00 0.00 0.00 75 1014.2
20260506090004 -1 0 0.0 0.0 0.00 0.00 0.00 75 1014.1
20260506085904 -1 0 0.0 0.0 0.00 0.00 0.00 75 1014.1
20260506085805 -1 0 0.0 0.0 0.00 0.00 0.00 74 1014.1
20260506085704 -1 0 0.0 0.0 0.00 0.00 0.00 74 1014.1
20260506085605 -1 0 0.0 0.0 0.00 0.00 0.00 74 1014.1
20260506085505 0 0 0.0 0.0 0.00 0.00 0.00 74 1014.1
20260506085405 0 0 0.0 0.0 0.00 0.00 0.00 74 1014.1
20260506085306 0 0 0.0 0.0 0.00 0.00 0.00 74 1014.1
20260506085204 0 0 0.0 0.0 0.00 0.00 0.00 73 1014.1
20260506085104 0 0 0.0 0.0 0.00 0.00 0.00 73 1014.1
20260506085018 0 0 0.0 0.0 0.00 0.00 0.00 73 1014.1
20260506084919 0 0 0.0 0.0 0.00 0.00 0.00 73 1014.1
20260506084805 0 0 0.0 0.0 0.00 0.00 0.00 73 1014.1
20260506084705 0 0 0.0 0.0 0.00 0.00 0.00 73 1014.1
20260506084604 0 0 0.0 0.0 0.00 0.00 0.00 73 1014.1
20260506084505 0 0 0.0 0.0 0.00 0.00 0.00 73 1014.1
20260506084404 0 0 0.0 0.0 0.00 0.00 0.00 74 1014.1
20260506084305 0 0 0.0 0.0 0.00 0.00 0.00 74 1014.1
20260506084205 0 0 0.0 0.0 0.00 0.00 0.00 74 1014.1
20260506084120 0 0 0.0 0.0 0.00 0.00 0.00 74 1014.1
20260506084005 0 0 0.0 0.0 0.00 0.00 0.00 73 1014.1
20260506083904 0 0 0.0 0.0 0.00 0.00 0.00 73 1014.1
20260506083805 0 0 0.0 0.0 0.00 0.00 0.00 73 1014.1
20260506083705 0 0 0.0 0.0 0.00 0.00 0.00 73 1014.1
20260506083619 0 0 0.0 0.0 0.00 0.00 0.00 73 1014.1
20260506083504 0 0 0.0 0.0 0.00 0.00 0.00 73 1014.1
20260506083404 0 0 0.0 0.0 0.00 0.00 0.00 73 1014.2
20260506083305 0 0 0.0 0.0 0.00 0.00 0.00 73 1014.2
20260506083204 0 0 0.0 0.0 0.00 0.00 0.00 73 1014.2
20260506083105 0 0 0.0 0.0 0.00 0.00 0.00 73 1014.2
20260506083005 0 0 0.0 0.0 0.00 0.00 0.00 73 1014.2
20260506082904 0 0 0.0 0.0 0.00 0.00 0.00 73 1014.2
20260506082805 0 0 0.0 0.0 0.00 0.00 0.00 72 1014.2
20260506082705 0 0 0.0 0.0 0.00 0.00 0.00 72 1014.2
20260506082604 0 0 0.0 0.0 0.00 0.00 0.00 72 1014.2
20260506082504 0 0 0.0 0.0 0.00 0.00 0.00 72 1014.2
20260506082404 0 0 0.0 0.0 0.00 0.00 0.00 72 1014.2
20260506082305 0 0 0.0 0.0 0.00 0.00 0.00 72 1014.2
20260506082204 0 0 0.0 0.0 0.00 0.00 0.00 72 1014.2
20260506082119 0 0 0.0 0.0 0.00 0.00 0.00 72 1014.2
20260506082005 0 0 0.0 0.0 0.00 0.00 0.00 72 1014.2
20260506081905 0 0 0.0 0.0 0.00 0.00 0.00 72 1014.2
20260506081804 0 0 0.0 0.0 0.00 0.00 0.00 72 1014.2
20260506081704 0 0 0.0 3.2 0.00 0.00 0.00 71 1014.2
20260506081619 0 360 0.0 3.2 0.00 0.00 0.00 71 1014.3
20260506081506 0 360 0.0 3.2 0.00 0.00 0.00 71 1014.2
20260506081405 0 360 0.0 3.2 0.00 0.00 0.00 71 1014.2
20260506081305 0 360 0.0 3.2 0.00 0.00 0.00 71 1014.2
20260506081204 0 360 0.0 3.2 0.00 0.00 0.00 71 1014.2
20260506081104 0 360 0.0 3.2 0.00 0.00 0.00 71 1014.1
20260506081005 0 360 0.0 3.2 0.00 0.00 0.00 71 1014.1
20260506080904 0 360 0.0 3.2 0.00 0.00 0.00 71 1014.1
20260506080805 0 360 0.0 3.2 0.00 0.00 0.00 71 1014.1
20260506080705 0 360 0.0 3.2 0.00 0.00 0.00 71 1014.1
20260506080604 0 0 0.0 0.0 0.00 0.00 0.00 71 1014.1
20260506080504 0 0 0.0 0.0 0.00 0.00 0.00 71 1014.1
20260506080404 0 0 0.0 0.0 0.00 0.00 0.00 70 1014.1
20260506080304 0 0 0.0 0.0 0.00 0.00 0.00 70 1014.0
20260506080218 0 0 0.0 0.0 0.00 0.00 0.00 70 1014.1
20260506080105 0 0 0.0 0.0 0.00 0.00 0.00 70 1014.0
20260506073505 1 0 0.0 3.2 0.00 0.00 0.00 68 1013.8
20260506073405 1 0 0.0 3.2 0.00 0.00 0.00 68 1013.8
20260506073304 1 0 0.0 3.2 0.00 0.00 0.00 68 1013.8
20260506073204 1 0 0.0 3.2 0.00 0.00 0.00 68 1013.8
20260506073119 1 0 0.0 3.2 0.00 0.00 0.00 68 1013.8
20260506073004 1 0 0.0 3.2 0.00 0.00 0.00 68 1013.8
20260506072904 1 0 0.0 3.2 0.00 0.00 0.00 68 1013.8
20260506072819 1 0 0.0 3.2 0.00 0.00 0.00 68 1013.8
20260506072704 1 360 0.0 1.6 0.00 0.00 0.00 68 1013.8
20260506072605 1 360 0.0 3.2 0.00 0.00 0.00 68 1013.8
20260506072505 1 360 0.0 3.2 0.00 0.00 0.00 68 1013.8
20260506072404 1 360 0.0 3.2 0.00 0.00 0.00 68 1013.8
20260506072306 1 360 0.0 3.2 0.00 0.00 0.00 68 1013.9
20260506072204 1 360 0.0 3.2 0.00 0.00 0.00 68 1013.8
20260506072104 1 360 0.0 3.2 0.00 0.00 0.00 68 1013.8
20260506072004 1 360 0.0 3.2 0.00 0.00 0.00 68 1013.8
20260506071905 1 360 0.0 3.2 0.00 0.00 0.00 68 1013.8
20260506071804 1 360 0.0 3.2 0.00 0.00 0.00 68 1013.9
20260506071705 1 360 0.0 3.2 0.00 0.00 0.00 68 1013.8
20260506071604 1 360 0.0 3.2 0.00 0.00 0.00 68 1013.9
20260506071504 1 360 0.0 3.2 0.00 0.00 0.00 68 1013.9
20260506071418 1 360 0.0 3.2 0.00 0.00 0.00 68 1013.8
20260506071304 1 360 0.0 3.2 0.00 0.00 0.00 67 1013.9
20260506071219 1 360 0.0 3.2 0.00 0.00 0.00 67 1014.0
20260506071105 1 360 0.0 3.2 0.00 0.00 0.00 67 1013.9
20260506071004 1 360 0.0 3.2 0.00 0.00 0.00 67 1013.9
20260506070904 1 360 0.0 3.2 0.00 0.00 0.00 67 1013.9
20260506070804 1 360 0.0 3.2 0.00 0.00 0.00 67 1013.8
20260506070704 1 360 0.0 3.2 0.00 0.00 0.00 67 1013.9
20260506070604 1 360 0.0 3.2 0.00 0.00 0.00 66 1013.9
20260506070504 1 360 0.0 3.2 0.00 0.00 0.00 66 1013.9
20260506070404 1 360 0.0 3.2 0.00 0.00 0.00 66 1013.9
20260506070304 1 360 0.0 3.2 0.00 0.00 0.00 66 1013.9
20260506070204 1 360 0.0 3.2 0.00 0.00 0.00 66 1013.8
20260506070118 1 360 0.0 3.2 0.00 0.00 0.00 66 1013.9
20260506062505 2 360 1.6 3.2 0.00 0.00 0.00 64 1013.9
20260506062405 2 360 1.6 3.2 0.00 0.00 0.00 64 1013.9
20260506062306 2 360 1.6 3.2 0.00 0.00 0.00 64 1013.9
20260506062219 2 360 1.6 3.2 0.00 0.00 0.00 64 1013.9
20260506062104 2 360 1.6 3.2 0.00 0.00 0.00 64 1013.9
20260506062005 2 360 1.6 3.2 0.00 0.00 0.00 64 1013.9
20260506061904 2 360 1.6 3.2 0.00 0.00 0.00 63 1013.9
20260506061804 2 360 1.6 3.2 0.00 0.00 0.00 63 1013.8
20260506061705 2 360 0.0 3.2 0.00 0.00 0.00 63 1013.8
20260506061618 2 360 0.0 3.2 0.00 0.00 0.00 63 1013.9
20260506061504 2 360 0.0 3.2 0.00 0.00 0.00 63 1013.9
20260506061405 2 360 1.6 6.4 0.00 0.00 0.00 63 1013.9
20260506061304 2 360 1.6 6.4 0.00 0.00 0.00 63 1013.8
20260506061205 2 360 1.6 6.4 0.00 0.00 0.00 63 1013.9
20260506061104 2 360 1.6 6.4 0.00 0.00 0.00 63 1013.9
20260506061004 2 360 1.6 6.4 0.00 0.00 0.00 63 1013.9
20260506060918 2 360 1.6 6.4 0.00 0.00 0.00 63 1013.9
20260506060805 2 360 1.6 6.4 0.00 0.00 0.00 62 1014.0
20260506060718 2 360 1.6 6.4 0.00 0.00 0.00 62 1014.0
20260506060605 2 360 1.6 6.4 0.00 0.00 0.00 62 1013.9
20260506060519 2 360 1.6 6.4 0.00 0.00 0.00 62 1013.9
20260506060405 2 360 1.6 6.4 0.00 0.00 0.00 62 1013.9
20260506060305 2 360 0.0 4.8 0.00 0.00 0.00 61 1013.9
20260506060205 2 360 0.0 3.2 0.00 0.00 0.00 61 1013.9
20260506060118 2 360 0.0 3.2 0.00 0.00 0.00 61 1013.9
20260506051405 3 360 1.6 6.4 0.00 0.00 0.00 58 1013.4
20260506051304 3 360 3.2 6.4 0.00 0.00 0.00 58 1013.4
20260506051205 3 360 3.2 6.4 0.00 0.00 0.00 58 1013.3
20260506051104 3 360 3.2 6.4 0.00 0.00 0.00 58 1013.3
20260506051005 3 360 3.2 6.4 0.00 0.00 0.00 58 1013.3
20260506050904 3 360 3.2 6.4 0.00 0.00 0.00 58 1013.3
20260506050818 3 360 3.2 6.4 0.00 0.00 0.00 58 1013.3
20260506050705 3 360 3.2 4.8 0.00 0.00 0.00 58 1013.3
20260506050604 3 360 1.6 4.8 0.00 0.00 0.00 58 1013.2
20260506050505 3 360 1.6 4.8 0.00 0.00 0.00 57 1013.1
20260506050405 3 360 3.2 4.8 0.00 0.00 0.00 57 1013.2
20260506050305 3 360 1.6 4.8 0.00 0.00 0.00 57 1013.2
20260506050204 3 360 1.6 4.8 0.00 0.00 0.00 57 1013.2
20260506050104 3 360 1.6 3.2 0.00 0.00 0.00 57 1013.2
20260506045105 3 360 3.2 6.4 0.00 0.00 0.00 56 1013.0
20260506045005 3 360 4.8 6.4 0.00 0.00 0.00 56 1013.0
20260506044906 3 360 4.8 11.3 0.00 0.00 0.00 56 1013.1
20260506044804 3 360 4.8 11.3 0.00 0.00 0.00 56 1013.0
20260506044704 3 360 4.8 11.3 0.00 0.00 0.00 56 1013.0
20260506044608 3 360 4.8 11.3 0.00 0.00 0.00 56 1013.1
20260506044505 3 360 4.8 11.3 0.00 0.00 0.00 56 1013.0
20260506044419 3 360 4.8 11.3 0.00 0.00 0.00 56 1013.0
20260506044304 3 360 4.8 11.3 0.00 0.00 0.00 56 1013.1
20260506044205 3 360 4.8 11.3 0.00 0.00 0.00 56 1013.0
20260506044105 3 360 4.8 11.3 0.00 0.00 0.00 56 1013.0
20260506044004 3 360 4.8 11.3 0.00 0.00 0.00 56 1013.0
20260506043918 3 360 3.2 11.3 0.00 0.00 0.00 56 1013.0
20260506043804 3 360 3.2 8.0 0.00 0.00 0.00 56 1013.1
20260506043705 3 360 3.2 8.0 0.00 0.00 0.00 56 1013.0
20260506043605 3 360 1.6 8.0 0.00 0.00 0.00 56 1013.1
20260506043505 3 360 1.6 4.8 0.00 0.00 0.00 55 1013.1
20260506043404 3 360 1.6 4.8 0.00 0.00 0.00 55 1013.1
20260506043304 3 360 1.6 8.0 0.00 0.00 0.00 55 1013.0
20260506043204 3 360 1.6 8.0 0.00 0.00 0.00 55 1013.0
20260506043118 3 360 1.6 8.0 0.00 0.00 0.00 55 1013.0
20260506043005 3 360 1.6 8.0 0.00 0.00 0.00 55 1013.0
20260506042904 3 360 3.2 8.0 0.00 0.00 0.00 55 1013.0
20260506042804 3 360 3.2 8.0 0.00 0.00 0.00 55 1013.0
20260506042704 3 360 3.2 8.0 0.00 0.00 0.00 54 1013.0
20260506042618 3 360 3.2 8.0 0.00 0.00 0.00 54 1013.0
20260506042504 4 360 3.2 8.0 0.00 0.00 0.00 54 1013.0
20260506042404 4 360 4.8 8.0 0.00 0.00 0.00 54 1013.0
20260506042305 4 360 3.2 8.0 0.00 0.00 0.00 54 1013.0
20260506042204 4 360 3.2 8.0 0.00 0.00 0.00 54 1013.0
20260506042118 4 360 3.2 8.0 0.00 0.00 0.00 54 1012.9
20260506042004 4 360 4.8 8.0 0.00 0.00 0.00 53 1013.0
20260506041904 4 360 3.2 8.0 0.00 0.00 0.00 53 1013.0
20260506041818 4 360 3.2 8.0 0.00 0.00 0.00 53 1013.0
20260506041705 4 360 3.2 8.0 0.00 0.00 0.00 53 1013.0
20260506041604 4 360 3.2 6.4 0.00 0.00 0.00 53 1012.9
20260506041504 4 360 3.2 6.4 0.00 0.00 0.00 53 1012.9
20260506041404 4 360 4.8 9.7 0.00 0.00 0.00 53 1012.9
20260506041304 4 360 4.8 9.7 0.00 0.00 0.00 53 1012.9
20260506041204 4 360 3.2 9.7 0.00 0.00 0.00 53 1012.9
20260506041118 4 360 4.8 9.7 0.00 0.00 0.00 53 1012.9
20260506041004 4 360 4.8 9.7 0.00 0.00 0.00 52 1012.9
20260506040905 4 360 4.8 9.7 0.00 0.00 0.00 52 1013.0
20260506040804 4 360 4.8 9.7 0.00 0.00 0.00 52 1013.0
20260506040718 4 360 4.8 9.7 0.00 0.00 0.00 53 1013.0
20260506040604 4 360 4.8 9.7 0.00 0.00 0.00 52 1013.0
20260506040505 4 360 4.8 9.7 0.00 0.00 0.00 52 1013.0
20260506040404 4 360 3.2 9.7 0.00 0.00 0.00 52 1012.9
20260506040304 4 360 4.8 17.7 0.00 0.00 0.00 52 1012.9
20260506040204 4 360 4.8 17.7 0.00 0.00 0.00 52 1012.9
20260506040104 4 360 4.8 17.7 0.00 0.00 0.00 52 1012.9
20260506040004 4 360 4.8 17.7 0.00 0.00 0.00 52 1012.9
20260506035904 4 360 4.8 17.7 0.00 0.00 0.00 52 1012.9
20260506035804 4 360 4.8 17.7 0.00 0.00 0.00 51 1012.9
20260506035704 4 360 6.4 17.7 0.00 0.00 0.00 51 1012.9
20260506035604 4 360 6.4 17.7 0.00 0.00 0.00 52 1012.9
20260506035504 4 360 6.4 17.7 0.00 0.00 0.00 52 1012.9
20260506035404 4 360 6.4 17.7 0.00 0.00 0.00 52 1012.9
20260506035306 4 360 4.8 17.7 0.00 0.00 0.00 52 1012.9
20260506035205 4 360 4.8 14.5 0.00 0.00 0.00 51 1012.9
20260506035105 4 360 4.8 14.5 0.00 0.00 0.00 52 1012.9
20260506035004 5 360 4.8 14.5 0.00 0.00 0.00 51 1012.9
20260506034904 5 360 4.8 14.5 0.00 0.00 0.00 51 1012.8
20260506034804 5 360 4.8 14.5 0.00 0.00 0.00 51 1012.9
20260506034718 5 360 4.8 14.5 0.00 0.00 0.00 52 1012.9
20260506034605 5 360 4.8 9.7 0.00 0.00 0.00 52 1012.9
20260506034504 5 360 4.8 9.7 0.00 0.00 0.00 52 1012.8
20260506034404 5 360 4.8 9.7 0.00 0.00 0.00 51 1012.9
20260506034304 5 360 4.8 9.7 0.00 0.00 0.00 52 1012.8
20260506034204 5 360 4.8 9.7 0.00 0.00 0.00 51 1012.8
20260506034104 5 360 4.8 9.7 0.00 0.00 0.00 52 1012.9
20260506034018 5 360 4.8 9.7 0.00 0.00 0.00 51 1012.8
20260506033904 5 360 3.2 9.7 0.00 0.00 0.00 51 1012.8
20260506033805 5 360 3.2 8.0 0.00 0.00 0.00 51 1012.7
20260506033704 5 360 3.2 8.0 0.00 0.00 0.00 51 1012.7
20260506033604 5 360 3.2 8.0 0.00 0.00 0.00 51 1012.7
20260506033504 5 360 4.8 12.9 0.00 0.00 0.00 51 1012.7
20260506033404 5 360 4.8 12.9 0.00 0.00 0.00 51 1012.6
20260506033304 5 360 6.4 12.9 0.00 0.00 0.00 51 1012.7
20260506033205 5 360 6.4 12.9 0.00 0.00 0.00 51 1012.7
20260506033104 5 360 4.8 12.9 0.00 0.00 0.00 51 1012.7
20260506033018 5 360 6.4 12.9 0.00 0.00 0.00 50 1012.7
20260506032904 5 360 6.4 12.9 0.00 0.00 0.00 51 1012.7
20260506032804 5 360 6.4 12.9 0.00 0.00 0.00 50 1012.8
20260506032718 5 360 6.4 12.9 0.00 0.00 0.00 50 1012.8
20260506032619 5 360 6.4 12.9 0.00 0.00 0.00 50 1012.8
20260506032504 5 360 4.8 12.9 0.00 0.00 0.00 50 1012.8
20260506032418 5 360 4.8 9.7 0.00 0.00 0.00 50 1012.8
20260506032306 5 360 4.8 8.0 0.00 0.00 0.00 50 1012.8
20260506032218 5 360 6.4 19.3 0.00 0.00 0.00 50 1012.8
20260506032105 5 360 6.4 19.3 0.00 0.00 0.00 50 1012.8
20260506032018 5 360 6.4 19.3 0.00 0.00 0.00 50 1012.8
20260506031905 5 360 6.4 19.3 0.00 0.00 0.00 50 1012.7
20260506031805 5 360 8.0 19.3 0.00 0.00 0.00 50 1012.7
20260506031718 5 360 8.0 19.3 0.00 0.00 0.00 50 1012.7
20260506031604 5 360 8.0 19.3 0.00 0.00 0.00 50 1012.7
20260506031504 5 360 8.0 19.3 0.00 0.00 0.00 50 1012.7
20260506031405 5 360 8.0 19.3 0.00 0.00 0.00 50 1012.7
20260506031318 5 360 8.0 19.3 0.00 0.00 0.00 50 1012.7
20260506031205 5 360 8.0 19.3 0.00 0.00 0.00 51 1012.7
20260506031104 5 360 6.4 14.5 0.00 0.00 0.00 51 1012.7
20260506031004 5 360 6.4 14.5 0.00 0.00 0.00 50 1012.7
20260506030919 5 360 6.4 14.5 0.00 0.00 0.00 50 1012.7
20260506030805 5 360 6.4 14.5 0.00 0.00 0.00 50 1012.7
20260506030705 5 360 4.8 14.5 0.00 0.00 0.00 50 1012.7
20260506030604 5 360 6.4 14.5 0.00 0.00 0.00 50 1012.6
20260506030504 5 360 6.4 14.5 0.00 0.00 0.00 50 1012.7
20260506030405 5 360 8.0 27.4 0.00 0.00 0.00 50 1012.6
20260506030304 5 360 9.7 27.4 0.00 0.00 0.00 50 1012.6
20260506030204 5 360 8.0 27.4 0.00 0.00 0.00 50 1012.6
20260506030104 5 360 8.0 27.4 0.00 0.00 0.00 50 1012.5
20260506030005 5 360 9.7 27.4 0.00 0.00 0.00 50 1012.5
20260506025919 5 360 11.3 27.4 0.00 0.00 0.00 50 1012.5
20260506025805 5 360 11.3 27.4 0.00 0.00 0.00 50 1012.5
20260506025718 5 360 11.3 27.4 0.00 0.00 0.00 50 1012.5
20260506025604 5 360 11.3 27.4 0.00 0.00 0.00 50 1012.4
20260506025504 5 360 11.3 27.4 0.00 0.00 0.00 50 1012.5
20260506025419 5 360 8.0 27.4 0.00 0.00 0.00 50 1012.5
20260506025306 5 360 8.0 22.5 0.00 0.00 0.00 50 1012.4
20260506025205 5 360 8.0 22.5 0.00 0.00 0.00 50 1012.4
20260506025104 5 360 8.0 22.5 0.00 0.00 0.00 50 1012.3
20260506025005 5 360 6.4 22.5 0.00 0.00 0.00 50 1012.4
20260506024904 5 360 4.8 20.9 0.00 0.00 0.00 50 1012.4
20260506024804 5 360 6.4 19.3 0.00 0.00 0.00 50 1012.4
20260506024704 5 360 6.4 19.3 0.00 0.00 0.00 50 1012.4
20260506024604 5 360 6.4 19.3 0.00 0.00 0.00 49 1012.3
20260506024504 5 360 8.0 19.3 0.00 0.00 0.00 50 1012.3
20260506024405 5 360 8.0 19.3 0.00 0.00 0.00 50 1012.3
20260506024304 5 360 8.0 19.3 0.00 0.00 0.00 49 1012.3
20260506024204 5 360 8.0 19.3 0.00 0.00 0.00 49 1012.3
20260506024105 6 360 6.4 19.3 0.00 0.00 0.00 49 1012.3
20260506024004 6 360 6.4 19.3 0.00 0.00 0.00 49 1012.3
20260506023904 6 360 8.0 19.3 0.00 0.00 0.00 49 1012.3
20260506023804 6 360 8.0 19.3 0.00 0.00 0.00 49 1012.2
20260506023718 6 360 8.0 19.3 0.00 0.00 0.00 49 1012.2
20260506023605 6 360 8.0 19.3 0.00 0.00 0.00 49 1012.2
20260506023504 6 360 6.4 19.3 0.00 0.00 0.00 49 1012.2
20260506023404 6 360 6.4 17.7 0.00 0.00 0.00 49 1012.2
20260506023304 6 360 6.4 17.7 0.00 0.00 0.00 49 1012.1
20260506023204 6 360 6.4 17.7 0.00 0.00 0.00 49 1012.2
20260506023119 6 360 6.4 17.7 0.00 0.00 0.00 49 1012.1
20260506023004 6 360 6.4 17.7 0.00 0.00 0.00 48 1012.1
20260506022919 6 360 6.4 17.7 0.00 0.00 0.00 48 1012.1
20260506022804 6 360 6.4 16.1 0.00 0.00 0.00 48 1012.0
20260506022705 6 360 6.4 16.1 0.00 0.00 0.00 48 1012.1
20260506022605 6 360 6.4 11.3 0.00 0.00 0.00 48 1012.1
20260506022504 6 360 6.4 11.3 0.00 0.00 0.00 48 1012.0
20260506022419 6 360 4.8 11.3 0.00 0.00 0.00 48 1012.0
20260506022306 6 360 4.8 9.7 0.00 0.00 0.00 48 1012.0
20260506022204 6 360 8.0 16.1 0.00 0.00 0.00 48 1011.9
20260506022104 6 360 8.0 16.1 0.00 0.00 0.00 48 1011.9
20260506022018 6 360 8.0 16.1 0.00 0.00 0.00 48 1011.9
20260506021904 6 360 8.0 16.1 0.00 0.00 0.00 47 1011.9
20260506021804 6 360 8.0 16.1 0.00 0.00 0.00 47 1011.9
20260506021705 6 360 6.4 16.1 0.00 0.00 0.00 47 1011.8
20260506021604 6 360 6.4 16.1 0.00 0.00 0.00 47 1011.8
20260506021504 6 360 6.4 16.1 0.00 0.00 0.00 47 1011.8
20260506021404 6 360 6.4 16.1 0.00 0.00 0.00 47 1011.8
20260506021305 6 360 6.4 16.1 0.00 0.00 0.00 47 1011.8
20260506021204 6 360 6.4 16.1 0.00 0.00 0.00 47 1011.7
20260506021104 6 360 8.0 19.3 0.00 0.00 0.00 47 1011.7
20260506021004 6 360 6.4 19.3 0.00 0.00 0.00 47 1011.6
20260506020905 6 360 6.4 19.3 0.00 0.00 0.00 47 1011.5
20260506020818 6 360 6.4 19.3 0.00 0.00 0.00 47 1011.6
20260506020704 6 360 6.4 19.3 0.00 0.00 0.00 47 1011.5
20260506020618 6 360 8.0 19.3 0.00 0.00 0.00 47 1011.5
20260506020504 6 360 6.4 19.3 0.00 0.00 0.00 47 1011.5
20260506020404 6 360 8.0 19.3 0.00 0.00 0.00 46 1011.5
20260506020304 6 360 8.0 19.3 0.00 0.00 0.00 46 1011.5
20260506020204 6 360 8.0 19.3 0.00 0.00 0.00 46 1011.5
20260506020104 6 360 6.4 19.3 0.00 0.00 0.00 46 1011.4
20260506020018 6 360 9.7 22.5 0.00 0.00 0.00 46 1011.5
20260506015904 6 360 9.7 22.5 0.00 0.00 0.00 46 1011.4
20260506015818 6 360 9.7 22.5 0.00 0.00 0.00 46 1011.4
20260506015705 6 360 9.7 22.5 0.00 0.00 0.00 46 1011.4
20260506015605 6 360 9.7 22.5 0.00 0.00 0.00 46 1011.4
20260506015504 6 360 9.7 22.5 0.00 0.00 0.00 46 1011.3
20260506015404 6 360 9.7 22.5 0.00 0.00 0.00 46 1011.4
20260506015318 6 360 9.7 22.5 0.00 0.00 0.00 46 1011.4
20260506015204 6 360 9.7 22.5 0.00 0.00 0.00 46 1011.4
20260506015105 6 360 9.7 22.5 0.00 0.00 0.00 46 1011.4
20260506015004 6 360 8.0 22.5 0.00 0.00 0.00 46 1011.4
20260506014904 7 360 8.0 16.1 0.00 0.00 0.00 46 1011.4
20260506014805 7 360 8.0 16.1 0.00 0.00 0.00 46 1011.4
20260506014704 7 360 8.0 16.1 0.00 0.00 0.00 46 1011.4
20260506014604 7 360 6.4 16.1 0.00 0.00 0.00 46 1011.4
20260506014504 7 360 6.4 16.1 0.00 0.00 0.00 46 1011.4
20260506014404 7 360 8.0 16.1 0.00 0.00 0.00 45 1011.4
20260506014319 7 360 8.0 16.1 0.00 0.00 0.00 45 1011.3
20260506014204 7 360 8.0 16.1 0.00 0.00 0.00 45 1011.3
20260506014104 7 360 9.7 16.1 0.00 0.00 0.00 45 1011.3
20260506014005 7 360 9.7 16.1 0.00 0.00 0.00 45 1011.2
20260506013904 7 360 9.7 16.1 0.00 0.00 0.00 45 1011.2
20260506013805 7 360 9.7 16.1 0.00 0.00 0.00 45 1011.2
20260506013705 7 360 9.7 16.1 0.00 0.00 0.00 45 1011.1
20260506013604 7 360 9.7 16.1 0.00 0.00 0.00 45 1011.2
20260506013505 7 360 9.7 16.1 0.00 0.00 0.00 45 1011.1
20260506013404 7 360 9.7 16.1 0.00 0.00 0.00 45 1011.1
20260506013305 7 360 11.3 27.4 0.00 0.00 0.00 45 1011.0
20260506013204 7 360 11.3 27.4 0.00 0.00 0.00 45 1011.0
20260506013104 7 360 11.3 27.4 0.00 0.00 0.00 45 1011.1
20260506013004 7 360 11.3 27.4 0.00 0.00 0.00 45 1011.1
20260506012918 7 360 11.3 27.4 0.00 0.00 0.00 45 1011.1
20260506012805 7 360 11.3 27.4 0.00 0.00 0.00 45 1011.1
20260506012704 7 360 11.3 27.4 0.00 0.00 0.00 45 1011.1
20260506012604 7 360 11.3 27.4 0.00 0.00 0.00 44 1011.0
20260506012504 7 360 11.3 27.4 0.00 0.00 0.00 44 1011.0
20260506012404 7 360 11.3 27.4 0.00 0.00 0.00 44 1011.0
20260506012308 7 360 9.7 27.4 0.00 0.00 0.00 44 1011.0
20260506012204 7 360 9.7 22.5 0.00 0.00 0.00 44 1011.0
20260506012118 7 360 9.7 22.5 0.00 0.00 0.00 44 1011.0
20260506012004 7 360 8.0 20.9 0.00 0.00 0.00 44 1011.0
20260506011904 7 360 6.4 20.9 0.00 0.00 0.00 45 1011.0
20260506011804 7 360 6.4 16.1 0.00 0.00 0.00 45 1011.0
20260506011704 7 360 6.4 16.1 0.00 0.00 0.00 45 1011.0
20260506011605 7 360 6.4 16.1 0.00 0.00 0.00 45 1011.0
20260506011505 7 360 6.4 16.1 0.00 0.00 0.00 44 1011.0
20260506011404 7 360 6.4 16.1 0.00 0.00 0.00 44 1010.9
20260506011304 7 360 6.4 16.1 0.00 0.00 0.00 44 1010.9
20260506011204 7 360 6.4 16.1 0.00 0.00 0.00 44 1010.9
20260506011104 7 360 6.4 16.1 0.00 0.00 0.00 44 1011.0
20260506011004 7 360 6.4 16.1 0.00 0.00 0.00 44 1010.9
20260506010904 7 360 4.8 16.1 0.00 0.00 0.00 44 1010.9
20260506010818 7 360 4.8 16.1 0.00 0.00 0.00 44 1010.9
20260506010704 7 360 4.8 16.1 0.00 0.00 0.00 44 1011.0
20260506010604 7 360 4.8 16.1 0.00 0.00 0.00 44 1010.9
20260506010504 7 360 4.8 16.1 0.00 0.00 0.00 44 1010.9
20260506010404 7 360 4.8 16.1 0.00 0.00 0.00 44 1010.9
20260506010318 7 360 3.2 11.3 0.00 0.00 0.00 44 1010.8
20260506010204 7 360 4.8 16.1 0.00 0.00 0.00 44 1010.8
20260506010105 7 360 4.8 16.1 0.00 0.00 0.00 44 1010.8
20260506010004 7 360 6.4 16.1 0.00 0.00 0.00 44 1010.8
20260506005918 7 360 6.4 16.1 0.00 0.00 0.00 44 1010.8
20260506005818 7 360 6.4 16.1 0.00 0.00 0.00 44 1010.8
20260506005704 7 360 6.4 16.1 0.00 0.00 0.00 44 1010.8
20260506005605 7 360 6.4 16.1 0.00 0.00 0.00 44 1010.7
20260506005504 7 360 6.4 16.1 0.00 0.00 0.00 44 1010.7
20260506005404 7 360 6.4 16.1 0.00 0.00 0.00 44 1010.7
20260506005318 7 360 8.0 16.1 0.00 0.00 0.00 44 1010.7
20260506005205 7 360 8.0 16.1 0.00 0.00 0.00 43 1010.7
20260506005104 7 360 8.0 14.5 0.00 0.00 0.00 43 1010.7
20260506005005 7 360 6.4 11.3 0.00 0.00 0.00 43 1010.7
20260506004904 7 360 6.4 9.7 0.00 0.00 0.00 43 1010.7
20260506004805 7 360 8.0 22.5 0.00 0.00 0.00 43 1010.7
20260506004705 8 360 8.0 22.5 0.00 0.00 0.00 43 1010.7
20260506004618 8 360 8.0 22.5 0.00 0.00 0.00 43 1010.7
20260506004505 8 360 8.0 22.5 0.00 0.00 0.00 43 1010.8
20260506004405 8 360 9.7 22.5 0.00 0.00 0.00 42 1010.7
20260506004305 8 360 9.7 22.5 0.00 0.00 0.00 42 1010.7
20260506004205 8 360 9.7 22.5 0.00 0.00 0.00 42 1010.6
20260506004118 8 360 9.7 22.5 0.00 0.00 0.00 42 1010.7
20260506004004 8 360 9.7 22.5 0.00 0.00 0.00 42 1010.7
20260506003905 8 360 9.7 22.5 0.00 0.00 0.00 42 1010.7
20260506003804 8 360 9.7 22.5 0.00 0.00 0.00 42 1010.7
20260506003704 8 360 9.7 19.3 0.00 0.00 0.00 42 1010.7
20260506003604 8 360 9.7 19.3 0.00 0.00 0.00 42 1010.7
20260506003504 8 360 9.7 19.3 0.00 0.00 0.00 42 1010.7
20260506003404 8 360 8.0 19.3 0.00 0.00 0.00 42 1010.6
20260506003305 8 360 8.0 19.3 0.00 0.00 0.00 42 1010.7
20260506003204 8 360 6.4 19.3 0.00 0.00 0.00 42 1010.6
20260506003105 8 360 6.4 14.5 0.00 0.00 0.00 42 1010.6
20260506003019 8 360 6.4 14.5 0.00 0.00 0.00 42 1010.6
20260506002904 8 360 6.4 14.5 0.00 0.00 0.00 42 1010.5
20260506002804 8 360 4.8 14.5 0.00 0.00 0.00 42 1010.6
20260506002704 8 360 4.8 14.5 0.00 0.00 0.00 42 1010.5
20260506002604 8 360 4.8 14.5 0.00 0.00 0.00 42 1010.6
20260506002504 8 360 6.4 17.7 0.00 0.00 0.00 42 1010.6
20260506002404 8 360 6.4 17.7 0.00 0.00 0.00 41 1010.5
20260506002306 8 360 8.0 17.7 0.00 0.00 0.00 41 1010.5
20260506002205 8 360 8.0 17.7 0.00 0.00 0.00 41 1010.5
20260506002104 8 360 8.0 17.7 0.00 0.00 0.00 41 1010.5
20260506002004 8 360 8.0 17.7 0.00 0.00 0.00 41 1010.5
20260506001918 8 360 9.7 17.7 0.00 0.00 0.00 41 1010.5
20260506001805 8 360 9.7 17.7 0.00 0.00 0.00 41 1010.5
20260506001718 8 360 9.7 17.7 0.00 0.00 0.00 41 1010.5
20260506001618 8 360 8.0 17.7 0.00 0.00 0.00 41 1010.5
20260506001505 8 360 8.0 17.7 0.00 0.00 0.00 41 1010.5
20260506001418 8 360 8.0 17.7 0.00 0.00 0.00 41 1010.5
20260506001304 8 360 8.0 17.7 0.00 0.00 0.00 42 1010.5
20260506001204 8 360 8.0 16.1 0.00 0.00 0.00 41 1010.5
20260506001118 8 360 8.0 16.1 0.00 0.00 0.00 41 1010.4
20260506001005 8 360 8.0 16.1 0.00 0.00 0.00 41 1010.5
20260506000904 8 360 8.0 16.1 0.00 0.00 0.00 41 1010.5
20260506000805 8 360 9.7 19.3 0.00 0.00 0.00 41 1010.5
20260506000704 8 360 9.7 20.9 0.00 0.00 0.00 40 1010.5
20260506000604 8 360 11.3 20.9 0.00 0.00 0.00 40 1010.5
20260506000504 8 360 11.3 20.9 0.00 0.00 0.00 40 1010.5
20260506000404 8 360 11.3 20.9 0.00 0.00 0.00 40 1010.5
20260506000305 8 360 11.3 20.9 0.00 0.00 0.00 40 1010.5
20260506000205 8 360 11.3 20.9 0.00 0.00 0.00 40 1010.4
20260506000119 8 360 11.3 20.9 0.00 0.00 0.00 40 1010.5
20260506000004 8 360 11.3 20.9 0.00 0.00 0.00 40 1010.5
20260505235904 8 360 11.3 20.9 0.00 0.00 0.00 40 1010.5
20260505235818 8 360 9.7 20.9 0.00 0.00 0.00 40 1010.5
20260505235718 8 360 8.0 20.9 0.00 0.00 0.00 40 1010.5
20260505235618 8 360 6.4 17.7 0.00 0.00 0.00 40 1010.4
20260505235518 8 360 8.0 20.9 0.00 0.00 0.00 40 1010.5
20260505235404 8 360 8.0 20.9 0.00 0.00 0.00 40 1010.5
20260505235305 8 360 8.0 20.9 0.00 0.00 0.00 40 1010.4
20260505235204 8 360 8.0 20.9 0.00 0.00 0.00 40 1010.4
20260505235105 8 360 6.4 20.9 0.00 0.00 0.00 40 1010.4
20260505235004 8 360 6.4 20.9 0.00 0.00 0.00 40 1010.4
20260505234904 8 360 6.4 20.9 0.00 0.00 0.00 40 1010.4
20260505234818 8 360 6.4 20.9 0.00 0.00 0.00 40 1010.4
20260505234704 8 360 8.0 20.9 0.00 0.00 0.00 40 1010.4
20260505234604 8 360 8.0 20.9 0.00 0.00 0.00 40 1010.4
20260505234505 8 360 6.4 20.9 0.00 0.00 0.00 40 1010.4
20260505234404 8 360 8.0 17.7 0.00 0.00 0.00 41 1010.4
20260505234304 8 360 8.0 17.7 0.00 0.00 0.00 41 1010.4
20260505234204 8 360 8.0 17.7 0.00 0.00 0.00 41 1010.4
20260505234118 8 360 8.0 17.7 0.00 0.00 0.00 40 1010.4
20260505234018 8 360 9.7 17.7 0.00 0.00 0.00 40 1010.3
20260505233904 8 360 9.7 17.7 0.00 0.00 0.00 40 1010.4
20260505233804 8 360 9.7 17.7 0.00 0.00 0.00 40 1010.4
20260505233704 8 360 8.0 16.1 0.00 0.00 0.00 40 1010.4
20260505233604 8 360 9.7 22.5 0.00 0.00 0.00 40 1010.4
20260505233504 8 360 8.0 22.5 0.00 0.00 0.00 40 1010.4
20260505233404 8 360 9.7 22.5 0.00 0.00 0.00 40 1010.4
20260505233318 8 360 9.7 22.5 0.00 0.00 0.00 40 1010.4
20260505233204 8 360 9.7 22.5 0.00 0.00 0.00 40 1010.4
20260505233105 8 360 9.7 22.5 0.00 0.00 0.00 40 1010.4
20260505233005 8 360 11.3 22.5 0.00 0.00 0.00 40 1010.3
20260505232904 8 360 11.3 22.5 0.00 0.00 0.00 40 1010.3
20260505232804 8 360 9.7 22.5 0.00 0.00 0.00 40 1010.3
20260505232704 8 360 11.3 22.5 0.00 0.00 0.00 40 1010.3
20260505232604 8 360 9.7 22.5 0.00 0.00 0.00 39 1010.3
20260505232505 8 360 11.3 24.1 0.00 0.00 0.00 39 1010.4
20260505232404 8 360 9.7 24.1 0.00 0.00 0.00 39 1010.4
20260505232305 8 360 9.7 24.1 0.00 0.00 0.00 39 1010.4
20260505232204 8 360 9.7 24.1 0.00 0.00 0.00 39 1010.3
20260505232104 8 360 9.7 24.1 0.00 0.00 0.00 39 1010.3
20260505232004 8 360 8.0 24.1 0.00 0.00 0.00 39 1010.3
20260505231904 8 360 8.0 24.1 0.00 0.00 0.00 38 1010.3
20260505231804 9 360 8.0 24.1 0.00 0.00 0.00 38 1010.3
20260505231705 9 360 8.0 24.1 0.00 0.00 0.00 39 1010.3
20260505231604 8 360 8.0 24.1 0.00 0.00 0.00 39 1010.3
20260505231504 9 360 6.4 24.1 0.00 0.00 0.00 39 1010.2
20260505231404 9 360 6.4 16.1 0.00 0.00 0.00 39 1010.3
20260505231304 9 360 6.4 16.1 0.00 0.00 0.00 39 1010.3
20260505231204 9 360 6.4 14.5 0.00 0.00 0.00 39 1010.2
20260505231104 9 360 9.7 24.1 0.00 0.00 0.00 39 1010.2
20260505231005 9 360 9.7 24.1 0.00 0.00 0.00 39 1010.2
20260505230904 8 360 9.7 24.1 0.00 0.00 0.00 39 1010.2
20260505230804 8 360 9.7 24.1 0.00 0.00 0.00 39 1010.2
20260505230704 9 360 9.7 24.1 0.00 0.00 0.00 38 1010.1
20260505230618 8 360 9.7 24.1 0.00 0.00 0.00 38 1010.1
20260505230518 9 360 9.7 24.1 0.00 0.00 0.00 39 1010.2
20260505230418 8 360 9.7 24.1 0.00 0.00 0.00 39 1010.2
20260505230304 8 360 9.7 24.1 0.00 0.00 0.00 39 1010.1
20260505230205 8 360 9.7 24.1 0.00 0.00 0.00 38 1010.1
20260505230104 8 360 8.0 24.1 0.00 0.00 0.00 39 1010.1
20260505230005 8 360 9.7 22.5 0.00 0.00 0.00 39 1010.1
20260505225906 8 360 9.7 22.5 0.00 0.00 0.00 39 1010.1
20260505225804 8 360 9.7 22.5 0.00 0.00 0.00 39 1010.2
20260505225705 8 360 9.7 22.5 0.00 0.00 0.00 39 1010.2
20260505225604 8 360 9.7 22.5 0.00 0.00 0.00 40 1010.2
20260505225519 8 360 11.3 22.5 0.00 0.00 0.00 39 1010.3
20260505225418 8 360 11.3 22.5 0.00 0.00 0.00 39 1010.1
20260505225306 8 360 11.3 22.5 0.00 0.00 0.00 39 1010.2
20260505225204 8 360 11.3 22.5 0.00 0.00 0.00 39 1010.1
20260505225118 8 360 11.3 22.5 0.00 0.00 0.00 38 1010.2
20260505225005 8 360 9.7 22.5 0.00 0.00 0.00 38 1010.2
20260505224904 8 360 9.7 22.5 0.00 0.00 0.00 38 1010.2
20260505224805 8 360 9.7 22.5 0.00 0.00 0.00 39 1010.2
20260505224704 8 360 11.3 29.0 0.00 0.00 0.00 38 1010.2
20260505224605 9 360 12.9 29.0 0.00 0.00 0.00 38 1010.1
20260505224505 9 360 11.3 29.0 0.00 0.00 0.00 38 1010.1
20260505224404 9 360 11.3 29.0 0.00 0.00 0.00 39 1010.1
20260505224304 9 360 11.3 29.0 0.00 0.00 0.00 39 1010.1
20260505224204 9 360 11.3 29.0 0.00 0.00 0.00 38 1010.1
20260505224104 9 360 9.7 29.0 0.00 0.00 0.00 38 1010.1
20260505224004 9 360 9.7 29.0 0.00 0.00 0.00 39 1010.1
20260505223905 9 360 9.7 29.0 0.00 0.00 0.00 38 1010.0
20260505223804 9 360 9.7 29.0 0.00 0.00 0.00 38 1009.9
20260505223719 9 360 8.0 29.0 0.00 0.00 0.00 38 1009.9
20260505223604 10 360 6.4 24.1 0.00 0.00 0.00 38 1010.0
20260505223504 10 360 4.8 17.7 0.00 0.00 0.00 38 1009.9
20260505223404 9 360 6.4 20.9 0.00 0.00 0.00 39 1009.9
20260505223305 9 360 8.0 20.9 0.00 0.00 0.00 41 1009.9
20260505223204 9 360 8.0 20.9 0.00 0.00 0.00 41 1010.0
20260505223104 9 360 8.0 20.9 0.00 0.00 0.00 39 1009.9
20260505223004 9 360 8.0 20.9 0.00 0.00 0.00 40 1009.9
20260505222918 9 360 9.7 20.9 0.00 0.00 0.00 40 1010.0
20260505222804 9 360 9.7 20.9 0.00 0.00 0.00 40 1009.9
20260505222705 9 360 11.3 20.9 0.00 0.00 0.00 40 1010.0
20260505222604 8 360 11.3 20.9 0.00 0.00 0.00 40 1010.1
20260505222504 8 360 11.3 20.9 0.00 0.00 0.00 39 1010.1
20260505222404 8 360 11.3 20.9 0.00 0.00 0.00 39 1010.1
20260505222306 8 360 11.3 19.3 0.00 0.00 0.00 39 1010.2
20260505222204 9 360 11.3 20.9 0.00 0.00 0.00 40 1010.2
20260505222104 9 360 11.3 20.9 0.00 0.00 0.00 39 1010.3
20260505222004 9 360 11.3 20.9 0.00 0.00 0.00 39 1010.2
20260505221904 9 360 12.9 20.9 0.00 0.00 0.00 38 1010.3
20260505221804 9 360 11.3 20.9 0.00 0.00 0.00 39 1010.3
20260505221704 9 360 11.3 20.9 0.00 0.00 0.00 39 1010.3
20260505221604 9 360 9.7 20.9 0.00 0.00 0.00 38 1010.3
20260505221504 9 360 11.3 20.9 0.00 0.00 0.00 39 1010.2
20260505221404 9 360 9.7 20.9 0.00 0.00 0.00 39 1010.4
20260505221304 9 360 9.7 20.9 0.00 0.00 0.00 39 1010.3
20260505221204 9 360 9.7 20.9 0.00 0.00 0.00 40 1010.3
20260505221104 9 360 8.0 17.7 0.00 0.00 0.00 39 1010.2
20260505221004 9 360 8.0 16.1 0.00 0.00 0.00 39 1010.1
20260505220904 9 360 8.0 16.1 0.00 0.00 0.00 40 1010.2
20260505220805 9 360 6.4 16.1 0.00 0.00 0.00 39 1010.2
20260505220704 9 360 4.8 16.1 0.00 0.00 0.00 41 1010.2
20260505220604 9 360 4.8 11.3 0.00 0.00 0.00 41 1010.2
20260505220504 9 360 4.8 9.7 0.00 0.00 0.00 40 1010.2
20260505220404 9 360 6.4 20.9 0.00 0.00 0.00 40 1010.2
20260505220304 9 360 6.4 20.9 0.00 0.00 0.00 39 1010.2
20260505220204 9 360 8.0 20.9 0.00 0.00 0.00 40 1010.2
20260505220104 9 360 8.0 20.9 0.00 0.00 0.00 40 1010.2
20260505220004 9 360 8.0 20.9 0.00 0.00 0.00 40 1010.2
20260505215918 9 360 8.0 20.9 0.00 0.00 0.00 41 1010.3
20260505215804 9 360 9.7 20.9 0.00 0.00 0.00 41 1010.2
20260505215704 9 360 11.3 20.9 0.00 0.00 0.00 41 1010.3
20260505215604 9 360 11.3 20.9 0.00 0.00 0.00 40 1010.3
20260505215505 8 360 11.3 20.9 0.00 0.00 0.00 40 1010.3
20260505215404 9 360 9.7 20.9 0.00 0.00 0.00 40 1010.3
20260505215318 9 360 9.7 20.9 0.00 0.00 0.00 40 1010.2
20260505215205 9 360 9.7 20.9 0.00 0.00 0.00 40 1010.2
20260505215104 9 360 9.7 20.9 0.00 0.00 0.00 40 1010.2
20260505215004 9 360 9.7 20.9 0.00 0.00 0.00 40 1010.3
20260505214904 9 360 8.0 20.9 0.00 0.00 0.00 39 1010.3
20260505214805 9 360 9.7 20.9 0.00 0.00 0.00 39 1010.2
20260505214704 9 360 6.4 17.7 0.00 0.00 0.00 40 1010.3
20260505214605 9 360 8.0 29.0 0.00 0.00 0.00 40 1010.3
20260505214504 9 360 9.7 29.0 0.00 0.00 0.00 39 1010.3
20260505214404 9 360 9.7 29.0 0.00 0.00 0.00 39 1010.4
20260505214318 9 360 9.7 29.0 0.00 0.00 0.00 39 1010.3
20260505214218 9 360 9.7 29.0 0.00 0.00 0.00 39 1010.4
20260505214104 9 360 9.7 29.0 0.00 0.00 0.00 39 1010.5
20260505214004 9 360 9.7 29.0 0.00 0.00 0.00 38 1010.3
20260505213918 9 360 11.3 29.0 0.00 0.00 0.00 38 1010.4
20260505213804 9 360 11.3 29.0 0.00 0.00 0.00 39 1010.3
20260505213704 9 360 11.3 29.0 0.00 0.00 0.00 39 1010.3
20260505213604 9 360 9.7 29.0 0.00 0.00 0.00 39 1010.3
20260505213504 9 360 11.3 25.7 0.00 0.00 0.00 39 1010.2
20260505213404 9 360 11.3 25.7 0.00 0.00 0.00 39 1010.3
20260505213304 9 360 11.3 25.7 0.00 0.00 0.00 38 1010.1
20260505213204 9 360 11.3 25.7 0.00 0.00 0.00 39 1010.2
20260505213118 9 360 11.3 25.7 0.00 0.00 0.00 39 1010.2
20260505213018 9 360 11.3 25.7 0.00 0.00 0.00 39 1010.2
20260505212904 9 360 11.3 25.7 0.00 0.00 0.00 38 1010.2
20260505212818 9 360 11.3 25.7 0.00 0.00 0.00 39 1010.2
20260505212704 9 360 9.7 25.7 0.00 0.00 0.00 39 1010.2
20260505212618 9 360 9.7 25.7 0.00 0.00 0.00 38 1010.2
20260505212518 9 360 9.7 25.7 0.00 0.00 0.00 38 1010.2
20260505212405 9 360 9.7 22.5 0.00 0.00 0.00 38 1010.1
20260505212319 9 360 9.7 22.5 0.00 0.00 0.00 38 1010.2
20260505212204 9 360 9.7 22.5 0.00 0.00 0.00 38 1010.2
20260505212104 9 360 9.7 22.5 0.00 0.00 0.00 38 1010.2
20260505212004 9 360 9.7 22.5 0.00 0.00 0.00 39 1010.2
20260505211904 9 360 9.7 22.5 0.00 0.00 0.00 39 1010.2
20260505211805 9 360 9.7 22.5 0.00 0.00 0.00 39 1010.2
20260505211704 10 360 9.7 22.5 0.00 0.00 0.00 39 1010.2
20260505211618 10 360 9.7 22.5 0.00 0.00 0.00 38 1010.2
20260505211504 10 360 9.7 22.5 0.00 0.00 0.00 38 1010.2
20260505211404 10 360 9.7 22.5 0.00 0.00 0.00 38 1010.3
20260505211319 10 360 9.7 20.9 0.00 0.00 0.00 38 1010.4
20260505211218 10 360 8.0 20.9 0.00 0.00 0.00 37 1010.5
20260505211104 10 360 9.7 19.3 0.00 0.00 0.00 39 1010.5
20260505211004 10 360 9.7 19.3 0.00 0.00 0.00 39 1010.6
20260505210905 10 360 9.7 19.3 0.00 0.00 0.00 40 1010.5
20260505210804 10 360 9.7 19.3 0.00 0.00 0.00 38 1010.4
20260505210718 10 360 9.7 19.3 0.00 0.00 0.00 38 1010.4
20260505210604 10 360 8.0 19.3 0.00 0.00 0.00 39 1010.4
20260505210504 9 360 8.0 19.3 0.00 0.00 0.00 40 1010.4
20260505210404 9 360 8.0 19.3 0.00 0.00 0.00 40 1010.3
20260505210304 9 360 8.0 19.3 0.00 0.00 0.00 39 1010.4
20260505210205 9 360 8.0 19.3 0.00 0.00 0.00 40 1010.4
20260505210118 9 360 8.0 19.3 0.00 0.00 0.00 39 1010.4
20260505210005 9 360 8.0 19.3 0.00 0.00 0.00 39 1010.3
20260505205905 9 360 6.4 14.5 0.00 0.00 0.00 39 1010.3
20260505205805 9 360 8.0 14.5 0.00 0.00 0.00 39 1010.4
20260505205704 9 360 8.0 14.5 0.00 0.00 0.00 40 1010.4
20260505205604 9 360 8.0 14.5 0.00 0.00 0.00 40 1010.4
20260505205505 9 360 9.7 14.5 0.00 0.00 0.00 39 1010.3
20260505205418 9 360 11.3 19.3 0.00 0.00 0.00 39 1010.4